CPA830 VHHH-KJFK

Flight info

Callsign CPA830
Flight time 14h 54m
Altitude 31000
Route DALOL V631 ENVAR M750 IMPAL Y755 CARDS DCT HIOTI DCT CBE Y121 SWING Y88 SUGAL/N0491F330 Y88 DAIGO Y889 OATIS R580 ONEIL DCT ECOMI/N0479F350 DCT 59N170W DCT BET DCT ORT NCA15 EMSOW DCT YOJ/N0476F370 J513 YMM DCT 56N110W 5130N10000W DCT OTLUR DCT KP09K DCT TVC/N0479F390 DCT TWIGS DCT JHW J106 MAGIO Q476 WLKES PUCKY1
Aircraft B77W/H-SDE1E2E3FGHIJ2J3J4J5M1RWXY/LB1D1

Departure

Time 2026-05-05 05:11
Airport Hong Kong International Airport (VHHH)

Arrival

Time 2026-05-05 20:05
Airport John F. Kennedy International Airport (KJFK)
Time Latitude Longitude Altitude Speed Heading
2026-05-05 04:13 22.31484 113.93064 42 ft 0 kts 161°
2026-05-05 04:56 22.31490 113.93063 42 ft 4 kts 161°
2026-05-05 04:56 22.31515 113.93053 39 ft 4 kts 161°
2026-05-05 04:56 22.31536 113.93045 41 ft 3 kts 162°
2026-05-05 04:57 22.31556 113.93041 39 ft 4 kts 197°
2026-05-05 04:57 22.31572 113.93051 39 ft 4 kts 238°
2026-05-05 04:57 22.31581 113.93075 36 ft 4 kts 251°
2026-05-05 04:57 22.31587 113.93093 36 ft 0 kts 251°
2026-05-05 05:01 22.31586 113.93088 36 ft 3 kts 251°
2026-05-05 05:01 22.31566 113.93026 39 ft 15 kts 251°
2026-05-05 05:01 22.31521 113.92886 42 ft 22 kts 251°
2026-05-05 05:01 22.31512 113.92725 42 ft 22 kts 293°
2026-05-05 05:02 22.31577 113.92574 42 ft 22 kts 296°
2026-05-05 05:02 22.31646 113.92454 41 ft 18 kts 325°
2026-05-05 05:02 22.31735 113.92413 41 ft 9 kts 325°
2026-05-05 05:02 22.31736 113.92356 41 ft 7 kts 252°
2026-05-05 05:03 22.31718 113.92297 41 ft 10 kts 251°
2026-05-05 05:03 22.31687 113.92201 41 ft 17 kts 250°
2026-05-05 05:03 22.31641 113.92060 41 ft 21 kts 250°
2026-05-05 05:03 22.31593 113.91909 41 ft 21 kts 251°
2026-05-05 05:04 22.31544 113.91759 41 ft 21 kts 251°
2026-05-05 05:04 22.31495 113.91608 42 ft 21 kts 251°
2026-05-05 05:04 22.31447 113.91458 42 ft 21 kts 251°
2026-05-05 05:04 22.31398 113.91307 43 ft 21 kts 251°
2026-05-05 05:05 22.31349 113.91155 42 ft 22 kts 251°
2026-05-05 05:05 22.31300 113.91001 42 ft 22 kts 251°
2026-05-05 05:05 22.31250 113.90847 42 ft 22 kts 251°
2026-05-05 05:05 22.31200 113.90694 41 ft 22 kts 251°
2026-05-05 05:06 22.31151 113.90541 41 ft 22 kts 251°
2026-05-05 05:06 22.31101 113.90387 41 ft 22 kts 251°
2026-05-05 05:06 22.31052 113.90234 41 ft 22 kts 251°
2026-05-05 05:06 22.31002 113.90081 41 ft 22 kts 251°
2026-05-05 05:07 22.30952 113.89928 41 ft 22 kts 251°
2026-05-05 05:07 22.30929 113.89835 41 ft 10 kts 278°
2026-05-05 05:07 22.30986 113.89793 41 ft 10 kts 338°
2026-05-05 05:07 22.31053 113.89768 41 ft 10 kts 346°
2026-05-05 05:08 22.31096 113.89800 41 ft 8 kts 59°
2026-05-05 05:08 22.31103 113.89820 41 ft 0 kts 71°
2026-05-05 05:10 22.31134 113.89919 42 ft 44 kts 71°
2026-05-05 05:10 22.31313 113.90471 39 ft 110 kts 71°
2026-05-05 05:10 22.31636 113.91474 44 ft 166 kts 71°
2026-05-05 05:10 22.32045 113.92728 274 ft 185 kts 70°
2026-05-05 05:11 22.32501 113.94045 745 ft 189 kts 70°
2026-05-05 05:11 22.32948 113.95389 1233 ft 192 kts 71°
2026-05-05 05:11 22.33378 113.96831 1331 ft 210 kts 76°
2026-05-05 05:11 22.33668 113.98451 1523 ft 228 kts 80°
2026-05-05 05:12 22.33934 114.00167 1943 ft 235 kts 80°
2026-05-05 05:12 22.34215 114.01955 2301 ft 247 kts 80°
2026-05-05 05:12 22.34408 114.03829 2642 ft 256 kts 95°
2026-05-05 05:12 22.33963 114.05713 3125 ft 264 kts 115°
2026-05-05 05:13 22.32863 114.07311 3587 ft 271 kts 140°
2026-05-05 05:13 22.31246 114.08353 4113 ft 274 kts 161°
2026-05-05 05:13 22.29388 114.08760 4705 ft 273 kts 179°
2026-05-05 05:13 22.27488 114.08736 5249 ft 275 kts 183°
2026-05-05 05:14 22.25560 114.08704 5804 ft 278 kts 183°
2026-05-05 05:14 22.23617 114.08682 6397 ft 280 kts 183°
2026-05-05 05:14 22.21656 114.08662 6912 ft 283 kts 184°
2026-05-05 05:14 22.19680 114.08643 7470 ft 285 kts 184°
2026-05-05 05:15 22.17695 114.08737 8028 ft 290 kts 169°
2026-05-05 05:15 22.15860 114.09712 8434 ft 304 kts 139°
2026-05-05 05:15 22.14610 114.11568 8922 ft 309 kts 120°
2026-05-05 05:15 22.13626 114.13656 9307 ft 316 kts 119°
2026-05-05 05:16 22.12635 114.15791 9819 ft 320 kts 119°
2026-05-05 05:16 22.11633 114.17944 10270 ft 324 kts 120°
2026-05-05 05:16 22.10587 114.20167 10428 ft 341 kts 120°
2026-05-05 05:16 22.09478 114.22502 10566 ft 359 kts 120°
2026-05-05 05:17 22.08305 114.24949 10693 ft 373 kts 122°
2026-05-05 05:17 22.06731 114.27146 10789 ft 380 kts 144°
2026-05-05 05:17 22.04570 114.28811 10988 ft 386 kts 149°
2026-05-05 05:17 22.02332 114.30480 11468 ft 393 kts 148°
2026-05-05 05:18 22.00100 114.32207 12083 ft 396 kts 148°
2026-05-05 05:18 21.97865 114.33965 12779 ft 399 kts 148°
2026-05-05 05:18 21.95630 114.35728 13463 ft 403 kts 148°
2026-05-05 05:18 21.93353 114.37525 14068 ft 406 kts 148°
2026-05-05 05:19 21.91068 114.39327 14611 ft 409 kts 148°
2026-05-05 05:19 21.88758 114.41145 15124 ft 413 kts 148°
2026-05-05 05:19 21.86459 114.43006 15587 ft 415 kts 142°
2026-05-05 05:19 21.84594 114.45453 15858 ft 434 kts 121°
2026-05-05 05:20 21.83555 114.48535 16305 ft 440 kts 107°
2026-05-05 05:20 21.82790 114.51748 16729 ft 446 kts 107°
2026-05-05 05:20 21.82001 114.54985 17213 ft 449 kts 108°
2026-05-05 05:20 21.81190 114.58243 17726 ft 452 kts 108°
2026-05-05 05:21 21.80359 114.61518 18213 ft 456 kts 108°
2026-05-05 05:21 21.79513 114.64817 18633 ft 459 kts 108°
2026-05-05 05:21 21.78656 114.68141 19043 ft 463 kts 108°
2026-05-05 05:21 21.77792 114.71485 19472 ft 465 kts 108°
2026-05-05 05:22 21.76921 114.74852 19885 ft 468 kts 108°
2026-05-05 05:22 21.76046 114.78239 20286 ft 472 kts 108°
2026-05-05 05:22 21.75163 114.81650 20691 ft 475 kts 108°
2026-05-05 05:22 21.74343 114.85104 21103 ft 480 kts 102°
2026-05-05 05:23 21.74087 114.88699 21469 ft 486 kts 91°
2026-05-05 05:23 21.74140 114.92102 21835 ft 489 kts 89°
2026-05-05 05:23 21.74243 114.95768 22206 ft 492 kts 89°
2026-05-05 05:23 21.74324 114.99461 22570 ft 495 kts 90°
2026-05-05 05:24 21.74362 115.03174 22937 ft 498 kts 91°
2026-05-05 05:24 21.74365 115.06912 23306 ft 501 kts 91°
2026-05-05 05:24 21.74349 115.10664 23643 ft 504 kts 91°
2026-05-05 05:24 21.74328 115.14444 23932 ft 507 kts 91°
2026-05-05 05:25 21.74310 115.18251 24229 ft 509 kts 91°
2026-05-05 05:25 21.74297 115.21960 24525 ft 511 kts 91°
2026-05-05 05:25 21.74287 115.25839 24842 ft 514 kts 91°
2026-05-05 05:25 21.74280 115.29638 25110 ft 516 kts 91°
2026-05-05 05:26 21.74273 115.33505 25391 ft 518 kts 91°
2026-05-05 05:26 21.74265 115.37391 25675 ft 521 kts 91°
2026-05-05 05:26 21.74255 115.41349 25955 ft 523 kts 91°
2026-05-05 05:26 21.74244 115.45215 26231 ft 525 kts 91°
2026-05-05 05:27 21.74232 115.49156 26513 ft 527 kts 91°
2026-05-05 05:27 21.74219 115.53106 26798 ft 529 kts 91°
2026-05-05 05:27 21.74190 115.61068 27307 ft 534 kts 91°
2026-05-05 05:28 21.74175 115.65073 27568 ft 536 kts 91°
2026-05-05 05:28 21.74161 115.69086 27827 ft 538 kts 91°
2026-05-05 05:28 21.74146 115.73119 28077 ft 540 kts 91°
2026-05-05 05:28 21.74130 115.77176 28310 ft 542 kts 91°
2026-05-05 05:29 21.74113 115.81241 28529 ft 545 kts 91°
2026-05-05 05:29 21.74094 115.85324 28743 ft 547 kts 91°
2026-05-05 05:29 21.74075 115.89417 28951 ft 549 kts 91°
2026-05-05 05:29 21.74054 115.93529 29172 ft 550 kts 91°
2026-05-05 05:30 21.74033 115.97648 29457 ft 550 kts 91°
2026-05-05 05:30 21.74010 116.01756 29772 ft 549 kts 91°
2026-05-05 05:30 21.73986 116.05866 30103 ft 549 kts 91°
2026-05-05 05:30 21.73962 116.09917 30347 ft 549 kts 91°
2026-05-05 05:31 21.73936 116.14068 30615 ft 548 kts 91°
2026-05-05 05:31 21.73910 116.18111 30878 ft 548 kts 91°
2026-05-05 05:31 21.73853 116.26342 30980 ft 551 kts 91°
2026-05-05 05:32 21.73793 116.34472 30992 ft 546 kts 91°
2026-05-05 05:32 21.73729 116.42633 30983 ft 545 kts 91°
2026-05-05 05:33 21.73661 116.50781 30992 ft 544 kts 91°
2026-05-05 05:33 21.73589 116.58920 30990 ft 544 kts 91°
2026-05-05 05:34 21.73514 116.67066 30993 ft 545 kts 91°
2026-05-05 05:34 21.73650 116.75218 30985 ft 546 kts 83°
2026-05-05 05:35 21.75113 116.83222 31000 ft 546 kts 72°
2026-05-05 05:35 21.77756 116.90866 30999 ft 546 kts 66°
2026-05-05 05:36 21.80600 116.98440 30992 ft 546 kts 66°
2026-05-05 05:36 21.83398 117.06053 30994 ft 547 kts 67°
2026-05-05 05:37 21.86157 117.13695 30999 ft 548 kts 67°
2026-05-05 05:37 21.88909 117.21347 30996 ft 548 kts 67°
2026-05-05 05:38 21.91660 117.28991 30988 ft 547 kts 67°
2026-05-05 05:38 21.94405 117.36627 30994 ft 547 kts 67°
2026-05-05 05:39 21.97148 117.44269 30992 ft 547 kts 68°
2026-05-05 05:39 22.00141 117.51781 30996 ft 544 kts 59°
2026-05-05 05:40 22.03370 117.57587 31005 ft 542 kts 55°
2026-05-05 05:40 22.07375 117.64480 31000 ft 543 kts 56°
2026-05-05 05:41 22.11344 117.71426 31004 ft 544 kts 56°
2026-05-05 05:41 22.15285 117.78411 31001 ft 545 kts 56°
2026-05-05 05:42 22.19224 117.85410 31005 ft 546 kts 56°
2026-05-05 05:42 22.23174 117.92427 31010 ft 547 kts 56°
2026-05-05 05:43 22.27123 117.99447 31008 ft 547 kts 56°
2026-05-05 05:43 22.31145 118.06426 30991 ft 547 kts 55°
2026-05-05 05:44 22.35240 118.13356 31003 ft 548 kts 55°
2026-05-05 05:44 22.39315 118.20317 30998 ft 549 kts 55°
2026-05-05 05:45 22.43342 118.27328 31002 ft 549 kts 56°
2026-05-05 05:45 22.47314 118.34386 31001 ft 550 kts 56°
2026-05-05 05:46 22.51293 118.41445 31000 ft 550 kts 56°
2026-05-05 05:46 22.55256 118.48461 31000 ft 550 kts 56°
2026-05-05 05:47 22.59255 118.55523 31010 ft 550 kts 56°
2026-05-05 05:47 22.63283 118.62575 31001 ft 551 kts 56°
2026-05-05 05:48 22.67313 118.69629 31000 ft 551 kts 56°
2026-05-05 05:48 22.71334 118.76693 31001 ft 551 kts 56°
2026-05-05 05:49 22.75348 118.83760 30998 ft 551 kts 56°
2026-05-05 05:49 22.79364 118.90841 31006 ft 551 kts 56°
2026-05-05 05:50 22.83379 118.97929 31003 ft 552 kts 56°
2026-05-05 05:50 22.87393 119.05024 30999 ft 552 kts 56°
2026-05-05 05:51 22.91407 119.12130 31010 ft 553 kts 56°
2026-05-05 05:51 22.95437 119.19270 30983 ft 555 kts 56°
2026-05-05 05:52 22.99459 119.26411 30996 ft 554 kts 56°
2026-05-05 05:52 23.03468 119.33538 30996 ft 553 kts 56°
2026-05-05 05:53 23.07471 119.40664 30998 ft 552 kts 56°
2026-05-05 05:53 23.11471 119.47793 30993 ft 553 kts 56°
2026-05-05 05:54 23.15466 119.54926 30993 ft 553 kts 56°
2026-05-05 05:54 23.19463 119.62070 30994 ft 554 kts 57°
2026-05-05 05:55 23.23460 119.69233 30997 ft 554 kts 57°
2026-05-05 05:55 23.27455 119.76405 30997 ft 555 kts 57°
2026-05-05 05:56 23.31454 119.83593 31002 ft 555 kts 57°
2026-05-05 05:56 23.35580 119.90683 30990 ft 554 kts 51°
2026-05-05 05:57 23.40546 119.96971 30993 ft 548 kts 39°
2026-05-05 05:57 23.46117 120.02621 30999 ft 547 kts 38°
2026-05-05 05:58 23.51696 120.08269 31005 ft 549 kts 39°
2026-05-05 05:58 23.57251 120.13982 30998 ft 549 kts 39°
2026-05-05 05:59 23.62789 120.19717 31004 ft 549 kts 39°
2026-05-05 05:59 23.68318 120.25450 31004 ft 548 kts 39°
2026-05-05 06:00 23.73850 120.31186 31007 ft 548 kts 39°
2026-05-05 06:00 23.79387 120.36931 31015 ft 548 kts 39°
2026-05-05 06:01 23.84912 120.42674 31013 ft 549 kts 39°
2026-05-05 06:01 23.90443 120.48430 31011 ft 549 kts 39°
2026-05-05 06:02 23.95947 120.54197 31011 ft 554 kts 39°
2026-05-05 06:02 24.01476 120.60042 31021 ft 552 kts 39°
2026-05-05 06:03 24.06975 120.65866 31034 ft 549 kts 39°
2026-05-05 06:03 24.12467 120.71674 31037 ft 547 kts 39°
2026-05-05 06:04 24.17938 120.77464 31075 ft 549 kts 39°
2026-05-05 06:04 24.23482 120.83335 31010 ft 556 kts 39°
2026-05-05 06:05 24.29021 120.89220 31044 ft 553 kts 39°
2026-05-05 06:05 24.34532 120.95081 31054 ft 551 kts 39°
2026-05-05 06:06 24.40020 121.00925 31061 ft 549 kts 40°
2026-05-05 06:06 24.45093 121.07216 31087 ft 552 kts 47°
2026-05-05 06:07 24.49851 121.13880 31049 ft 556 kts 48°
2026-05-05 06:07 24.54641 121.20584 31079 ft 559 kts 47°
2026-05-05 06:08 24.59487 121.27287 31053 ft 561 kts 47°
2026-05-05 06:08 24.64365 121.34021 31046 ft 564 kts 47°
2026-05-05 06:09 24.69207 121.40723 31042 ft 564 kts 47°
2026-05-05 06:09 24.74082 121.47482 31002 ft 562 kts 47°
2026-05-05 06:10 24.78919 121.54197 31014 ft 559 kts 47°
2026-05-05 06:10 24.83742 121.60903 31012 ft 558 kts 48°
2026-05-05 06:11 24.88565 121.67616 31011 ft 560 kts 48°
2026-05-05 06:11 24.93508 121.74253 30991 ft 557 kts 45°
2026-05-05 06:12 24.98578 121.80597 30999 ft 548 kts 45°
2026-05-05 06:12 25.03607 121.86931 31016 ft 550 kts 46°
2026-05-05 06:13 25.08619 121.93350 31052 ft 558 kts 46°
2026-05-05 06:13 25.13685 121.99848 31021 ft 556 kts 46°
2026-05-05 06:14 25.18700 122.06324 31015 ft 553 kts 46°
2026-05-05 06:14 25.23721 122.12826 31115 ft 563 kts 46°
2026-05-05 06:15 25.28810 122.19420 31066 ft 562 kts 47°
2026-05-05 06:15 25.33830 122.25970 30968 ft 554 kts 47°
2026-05-05 06:16 25.38825 122.32478 31034 ft 560 kts 47°
2026-05-05 06:16 25.43865 122.39041 31037 ft 565 kts 47°
2026-05-05 06:17 25.48977 122.45716 31046 ft 564 kts 47°
2026-05-05 06:17 25.54050 122.52328 31052 ft 564 kts 46°
2026-05-05 06:18 25.59149 122.58940 31029 ft 564 kts 46°
2026-05-05 06:18 25.64199 122.65499 31041 ft 562 kts 47°
2026-05-05 06:19 25.69268 122.72100 31044 ft 561 kts 47°
2026-05-05 06:19 25.74322 122.78695 31050 ft 561 kts 47°
2026-05-05 06:20 25.79374 122.85295 31056 ft 561 kts 47°
2026-05-05 06:20 25.84424 122.91903 31053 ft 561 kts 47°
2026-05-05 06:21 25.89481 122.98529 31042 ft 562 kts 47°
2026-05-05 06:21 25.94536 123.05164 31069 ft 563 kts 47°
2026-05-05 06:22 25.99597 123.11820 31051 ft 565 kts 48°
2026-05-05 06:22 26.04664 123.18500 31053 ft 565 kts 48°
2026-05-05 06:23 26.09729 123.25185 31053 ft 565 kts 48°
2026-05-05 06:23 26.14791 123.31876 31063 ft 567 kts 48°
2026-05-05 06:24 26.19878 123.38608 31054 ft 568 kts 48°
2026-05-05 06:24 26.24957 123.45343 31054 ft 566 kts 48°
2026-05-05 06:25 26.30015 123.52060 31066 ft 565 kts 48°
2026-05-05 06:25 26.35063 123.58771 31076 ft 565 kts 48°
2026-05-05 06:26 26.39252 123.64348 31080 ft 565 kts 48°
2026-05-05 06:26 26.45124 123.72178 31082 ft 566 kts 48°
2026-05-05 06:27 26.51886 123.81213 31089 ft 568 kts 48°
2026-05-05 06:28 26.56953 123.87995 31092 ft 569 kts 49°
2026-05-05 06:28 26.62023 123.94792 31077 ft 570 kts 49°
2026-05-05 06:29 26.67102 124.01609 31085 ft 570 kts 49°
2026-05-05 06:29 26.72186 124.08421 31086 ft 570 kts 49°
2026-05-05 06:30 26.77277 124.15245 31088 ft 571 kts 49°
2026-05-05 06:30 26.82361 124.22076 31085 ft 571 kts 49°
2026-05-05 06:31 26.87448 124.28926 31087 ft 572 kts 49°
2026-05-05 06:31 26.92530 124.35780 31099 ft 573 kts 49°
2026-05-05 06:32 26.97630 124.42666 31088 ft 574 kts 49°
2026-05-05 06:32 27.02701 124.49505 31093 ft 573 kts 49°
2026-05-05 06:33 27.07798 124.56373 31093 ft 573 kts 49°
2026-05-05 06:33 27.12892 124.63252 31093 ft 572 kts 49°
2026-05-05 06:34 27.17974 124.70131 31095 ft 572 kts 49°
2026-05-05 06:34 27.23053 124.77016 31097 ft 572 kts 49°
2026-05-05 06:35 27.28123 124.83900 31095 ft 572 kts 49°
2026-05-05 06:35 27.33186 124.90786 31099 ft 572 kts 49°
2026-05-05 06:36 27.38251 124.97685 31108 ft 572 kts 49°
2026-05-05 06:36 27.43327 125.04579 31098 ft 572 kts 48°
2026-05-05 06:37 27.48129 125.11049 31104 ft 571 kts 48°
2026-05-05 06:37 27.53229 125.17923 31103 ft 571 kts 48°
2026-05-05 06:38 27.58319 125.24807 31108 ft 571 kts 49°
2026-05-05 06:38 27.63401 125.31699 31111 ft 572 kts 49°
2026-05-05 06:39 27.68483 125.38603 31108 ft 572 kts 49°
2026-05-05 06:39 27.73560 125.45511 31110 ft 572 kts 49°
2026-05-05 06:40 27.78631 125.52421 31106 ft 571 kts 49°
2026-05-05 06:40 27.83690 125.59326 31115 ft 570 kts 49°
2026-05-05 06:41 27.88710 125.66187 31109 ft 570 kts 49°
2026-05-05 06:41 27.93754 125.73094 31111 ft 569 kts 49°
2026-05-05 06:42 27.98781 125.79987 31108 ft 568 kts 49°
2026-05-05 06:42 28.03797 125.86877 31112 ft 567 kts 49°
2026-05-05 06:43 28.08809 125.93773 31113 ft 567 kts 49°
2026-05-05 06:43 28.13820 126.00678 31112 ft 567 kts 49°
2026-05-05 06:44 28.18830 126.07594 31115 ft 568 kts 49°
2026-05-05 06:44 28.23843 126.14524 31115 ft 569 kts 49°
2026-05-05 06:45 28.28859 126.21470 31119 ft 569 kts 49°
2026-05-05 06:45 28.33879 126.28433 31122 ft 570 kts 49°
2026-05-05 06:46 28.38895 126.35404 31121 ft 570 kts 49°
2026-05-05 06:46 28.43908 126.42380 31102 ft 570 kts 49°
2026-05-05 06:47 28.48920 126.49366 31118 ft 570 kts 50°
2026-05-05 06:47 28.53918 126.56345 31123 ft 569 kts 50°
2026-05-05 06:48 28.58910 126.63328 31122 ft 569 kts 50°
2026-05-05 06:48 28.63895 126.70311 31122 ft 568 kts 50°
2026-05-05 06:49 28.68871 126.77293 31120 ft 568 kts 50°
2026-05-05 06:49 28.73850 126.84293 31108 ft 568 kts 50°
2026-05-05 06:50 28.78819 126.91289 31111 ft 568 kts 50°
2026-05-05 06:50 28.83788 126.98298 31110 ft 568 kts 50°
2026-05-05 06:51 28.88750 127.05309 31111 ft 568 kts 50°
2026-05-05 06:51 28.93718 127.12338 31109 ft 569 kts 50°
2026-05-05 06:52 28.98652 127.19334 31113 ft 569 kts 50°
2026-05-05 06:52 29.03621 127.26389 31112 ft 570 kts 51°
2026-05-05 06:53 29.08584 127.33448 31114 ft 570 kts 51°
2026-05-05 06:53 29.13553 127.40528 31109 ft 570 kts 51°
2026-05-05 06:54 29.18510 127.47604 31114 ft 570 kts 51°
2026-05-05 06:54 29.23467 127.54691 31111 ft 570 kts 51°
2026-05-05 06:55 29.28416 127.61780 31116 ft 570 kts 51°
2026-05-05 06:55 29.33361 127.68874 31114 ft 569 kts 51°
2026-05-05 06:56 29.38294 127.75964 31114 ft 569 kts 51°
2026-05-05 06:56 29.43225 127.83064 31115 ft 568 kts 51°
2026-05-05 06:57 29.48148 127.90165 31116 ft 568 kts 51°
2026-05-05 06:57 29.53061 127.97262 31116 ft 568 kts 51°
2026-05-05 06:58 29.57976 128.04363 31119 ft 568 kts 51°
2026-05-05 06:58 29.62885 128.11464 31116 ft 568 kts 51°
2026-05-05 06:59 29.67795 128.18580 31121 ft 568 kts 51°
2026-05-05 06:59 29.72701 128.25706 31114 ft 568 kts 51°
2026-05-05 07:00 29.77603 128.32839 31118 ft 568 kts 51°
2026-05-05 07:00 29.82507 128.39987 31116 ft 568 kts 51°
2026-05-05 07:01 29.87404 128.47138 31118 ft 568 kts 51°
2026-05-05 07:01 29.92297 128.54295 31117 ft 569 kts 51°
2026-05-05 07:02 29.97188 128.61461 31109 ft 569 kts 51°
2026-05-05 07:02 30.02085 128.68649 31120 ft 570 kts 51°
2026-05-05 07:03 30.06980 128.75849 31125 ft 570 kts 51°
2026-05-05 07:03 30.11877 128.83064 31111 ft 571 kts 51°
2026-05-05 07:04 30.16774 128.90291 31119 ft 572 kts 51°
2026-05-05 07:04 30.21678 128.97543 31133 ft 573 kts 51°
2026-05-05 07:05 30.26584 129.04808 31116 ft 574 kts 51°
2026-05-05 07:05 30.31502 129.12102 31128 ft 575 kts 51°
2026-05-05 07:06 30.36422 129.19413 31124 ft 576 kts 51°
2026-05-05 07:06 30.41349 129.26750 31126 ft 577 kts 51°
2026-05-05 07:07 30.46278 129.34104 31125 ft 578 kts 51°
2026-05-05 07:07 30.51211 129.41477 31128 ft 579 kts 51°
2026-05-05 07:08 30.56145 129.48865 31126 ft 579 kts 51°
2026-05-05 07:08 30.61078 129.56267 31128 ft 580 kts 51°
2026-05-05 07:09 30.66009 129.63678 31129 ft 580 kts 51°
2026-05-05 07:09 30.70108 129.69849 31123 ft 581 kts 51°
2026-05-05 07:10 30.75045 129.77296 31129 ft 581 kts 51°
2026-05-05 07:10 30.79974 129.84745 31127 ft 582 kts 51°
2026-05-05 07:11 30.84874 129.92250 31130 ft 582 kts 54°
2026-05-05 07:11 30.89221 130.00206 31141 ft 583 kts 58°
2026-05-05 07:12 30.93423 130.08276 31134 ft 583 kts 58°
2026-05-05 07:12 30.97649 130.16346 31131 ft 584 kts 58°
2026-05-05 07:13 31.01909 130.24403 31138 ft 584 kts 58°
2026-05-05 07:13 31.06174 130.32459 31136 ft 584 kts 58°
2026-05-05 07:14 31.10408 130.40480 31141 ft 584 kts 58°
2026-05-05 07:14 31.14656 130.48557 31139 ft 584 kts 58°
2026-05-05 07:15 31.18905 130.56653 31140 ft 585 kts 58°
2026-05-05 07:15 31.23152 130.64758 31146 ft 585 kts 58°
2026-05-05 07:16 31.27396 130.72878 31143 ft 585 kts 58°
2026-05-05 07:16 31.31632 130.80998 31148 ft 585 kts 58°
2026-05-05 07:17 31.35867 130.89135 31141 ft 585 kts 58°
2026-05-05 07:17 31.40092 130.97268 31155 ft 585 kts 58°
2026-05-05 07:18 31.44314 131.05413 31155 ft 585 kts 58°
2026-05-05 07:18 31.48532 131.13568 31154 ft 585 kts 58°
2026-05-05 07:19 31.52744 131.21727 31150 ft 585 kts 58°
2026-05-05 07:19 31.56945 131.29888 31149 ft 584 kts 58°
2026-05-05 07:20 31.61109 131.37988 31154 ft 583 kts 58°
2026-05-05 07:20 31.65318 131.46194 31145 ft 584 kts 58°
2026-05-05 07:21 31.69470 131.54324 31143 ft 584 kts 58°
2026-05-05 07:21 31.73642 131.62512 31144 ft 584 kts 58°
2026-05-05 07:22 31.77840 131.70767 31147 ft 585 kts 58°
2026-05-05 07:22 31.81981 131.78924 31151 ft 585 kts 58°
2026-05-05 07:23 31.86147 131.87148 31159 ft 585 kts 58°
2026-05-05 07:23 31.90306 131.95377 31160 ft 585 kts 58°
2026-05-05 07:24 31.94458 132.03610 31157 ft 585 kts 58°
2026-05-05 07:24 31.98605 132.11850 31157 ft 584 kts 58°
2026-05-05 07:25 32.02744 132.20094 31159 ft 584 kts 58°
2026-05-05 07:25 32.06876 132.28342 31160 ft 584 kts 58°
2026-05-05 07:26 32.10999 132.36590 31163 ft 584 kts 58°
2026-05-05 07:26 32.14899 132.44990 31170 ft 584 kts 62°
2026-05-05 07:27 32.18515 132.53598 31163 ft 585 kts 63°
2026-05-05 07:27 32.22105 132.62225 31162 ft 586 kts 63°
2026-05-05 07:28 32.25729 132.70850 31168 ft 586 kts 62°
2026-05-05 07:28 32.29369 132.79475 31163 ft 587 kts 62°
2026-05-05 07:29 32.33003 132.88109 31163 ft 587 kts 62°
2026-05-05 07:29 32.36606 132.96702 31163 ft 587 kts 62°
2026-05-05 07:30 32.40225 133.05358 31167 ft 587 kts 62°
2026-05-05 07:30 32.45642 133.18350 31171 ft 587 kts 62°
2026-05-05 07:31 32.49254 133.27042 31171 ft 587 kts 62°
2026-05-05 07:31 32.52854 133.35723 31171 ft 587 kts 63°
2026-05-05 07:32 32.56454 133.44427 31178 ft 588 kts 62°
2026-05-05 07:32 32.60079 133.53131 31174 ft 589 kts 62°
2026-05-05 07:33 32.63709 133.61834 31174 ft 589 kts 62°
2026-05-05 07:33 32.67290 133.70562 31172 ft 589 kts 63°
2026-05-05 07:34 32.70853 133.79329 31175 ft 589 kts 63°
2026-05-05 07:34 32.74410 133.88083 31181 ft 589 kts 63°
2026-05-05 07:35 32.77971 133.96851 31181 ft 589 kts 63°
2026-05-05 07:35 32.81501 134.05638 31176 ft 590 kts 65°
2026-05-05 07:36 32.84245 134.14828 31185 ft 590 kts 74°
2026-05-05 07:36 32.86487 134.24209 31186 ft 590 kts 75°
2026-05-05 07:37 32.88757 134.33605 31187 ft 591 kts 74°
2026-05-05 07:37 32.91083 134.42992 31180 ft 591 kts 74°
2026-05-05 07:38 32.93414 134.52376 31188 ft 591 kts 74°
2026-05-05 07:38 32.95730 134.61763 31173 ft 591 kts 74°
2026-05-05 07:39 32.98015 134.71083 31183 ft 590 kts 74°
2026-05-05 07:39 33.00309 134.80462 31187 ft 589 kts 74°
2026-05-05 07:40 33.02588 134.89840 31180 ft 589 kts 74°
2026-05-05 07:40 33.04855 134.99223 31188 ft 589 kts 74°
2026-05-05 07:41 33.07116 135.08599 31187 ft 589 kts 74°
2026-05-05 07:41 33.10074 135.17626 31178 ft 584 kts 56°
2026-05-05 07:42 33.15099 135.25109 31190 ft 573 kts 36°
2026-05-05 07:42 33.21397 135.30758 31191 ft 566 kts 28°
2026-05-05 07:43 33.27788 135.36306 31201 ft 570 kts 30°
2026-05-05 07:43 33.34130 135.42043 31189 ft 572 kts 30°
2026-05-05 07:44 33.40467 135.47800 31176 ft 572 kts 30°
2026-05-05 07:44 33.46793 135.53548 31179 ft 570 kts 30°
2026-05-05 07:45 33.53092 135.59284 31181 ft 568 kts 30°
2026-05-05 07:45 33.59378 135.65019 31186 ft 567 kts 30°
2026-05-05 07:46 33.65658 135.70760 31188 ft 567 kts 30°
2026-05-05 07:46 33.71940 135.76477 31196 ft 566 kts 30°
2026-05-05 07:47 33.78236 135.82157 31176 ft 565 kts 30°
2026-05-05 07:47 33.84500 135.87834 31199 ft 563 kts 30°
2026-05-05 07:48 33.90746 135.93501 31197 ft 563 kts 30°
2026-05-05 07:48 33.97009 135.99176 31204 ft 564 kts 30°
2026-05-05 07:49 34.03292 136.04881 31192 ft 567 kts 30°
2026-05-05 07:49 34.09603 136.10633 31206 ft 569 kts 30°
2026-05-05 07:50 34.15938 136.16415 31195 ft 572 kts 30°
2026-05-05 07:50 34.22289 136.22215 31187 ft 572 kts 30°
2026-05-05 07:51 34.28592 136.27950 31201 ft 569 kts 30°
2026-05-05 07:51 34.34907 136.33705 31203 ft 568 kts 30°
2026-05-05 07:52 34.41210 136.39466 31204 ft 568 kts 30°
2026-05-05 07:52 34.47525 136.45216 31188 ft 568 kts 29°
2026-05-05 07:53 34.53850 136.50956 31183 ft 568 kts 29°
2026-05-05 07:53 34.60171 136.56710 31199 ft 569 kts 30°
2026-05-05 07:54 34.66507 136.62498 31207 ft 570 kts 30°
2026-05-05 07:54 34.72838 136.68325 31218 ft 571 kts 30°
2026-05-05 07:55 34.78100 136.73183 31220 ft 572 kts 30°
2026-05-05 07:55 34.84433 136.79033 31217 ft 572 kts 30°
2026-05-05 07:56 34.90831 136.84757 31216 ft 568 kts 27°
2026-05-05 07:56 34.97337 136.90204 31209 ft 567 kts 26°
2026-05-05 07:57 35.03833 136.95659 31197 ft 567 kts 27°
2026-05-05 07:57 35.10291 137.01174 31200 ft 566 kts 27°
2026-05-05 07:58 35.16725 137.06701 31199 ft 565 kts 27°
2026-05-05 07:58 35.23156 137.12230 31201 ft 564 kts 27°
2026-05-05 07:59 35.29573 137.17752 31203 ft 563 kts 27°
2026-05-05 07:59 35.35838 137.23537 31181 ft 570 kts 38°
2026-05-05 08:00 35.40915 137.31093 31200 ft 579 kts 54°
2026-05-05 08:00 35.44408 137.40025 31202 ft 582 kts 65°
2026-05-05 08:01 35.47712 137.49089 31197 ft 582 kts 63°
2026-05-05 08:01 35.51165 137.58067 31191 ft 582 kts 63°
2026-05-05 08:02 35.54609 137.67079 31190 ft 583 kts 63°
2026-05-05 08:02 35.58026 137.76122 31185 ft 584 kts 63°
2026-05-05 08:03 35.61389 137.85145 31346 ft 585 kts 64°
2026-05-05 08:03 35.63036 137.89707 31743 ft 584 kts 64°
2026-05-05 08:03 35.64699 137.94335 31914 ft 586 kts 64°
2026-05-05 08:04 35.66358 137.98933 32149 ft 589 kts 64°
2026-05-05 08:04 35.68039 138.03524 32389 ft 589 kts 63°
2026-05-05 08:04 35.69761 138.08034 32596 ft 591 kts 63°
2026-05-05 08:04 35.71563 138.12659 32778 ft 593 kts 62°
2026-05-05 08:05 35.73350 138.17232 33092 ft 592 kts 62°
2026-05-05 08:05 35.75125 138.21818 33140 ft 596 kts 63°
2026-05-05 08:05 35.78626 138.30973 33132 ft 590 kts 63°
2026-05-05 08:06 35.82114 138.40100 33177 ft 591 kts 63°
2026-05-05 08:06 35.85632 138.49277 33188 ft 594 kts 63°
2026-05-05 08:07 35.89153 138.58516 33178 ft 596 kts 63°
2026-05-05 08:07 35.92665 138.67776 33193 ft 594 kts 63°
2026-05-05 08:08 35.96144 138.76991 33172 ft 591 kts 63°
2026-05-05 08:08 35.99595 138.86157 33192 ft 587 kts 63°
2026-05-05 08:09 36.03026 138.95283 33180 ft 584 kts 63°
2026-05-05 08:09 36.06433 139.04365 33197 ft 582 kts 63°
2026-05-05 08:10 36.09835 139.13459 33196 ft 583 kts 63°
2026-05-05 08:10 36.13237 139.22584 33193 ft 585 kts 63°
2026-05-05 08:11 36.16833 139.31625 33200 ft 585 kts 57°
2026-05-05 08:11 36.21393 139.39884 33208 ft 581 kts 49°
2026-05-05 08:12 36.26246 139.47921 33205 ft 582 kts 49°
2026-05-05 08:12 36.31028 139.56019 33201 ft 582 kts 50°
2026-05-05 08:13 36.35728 139.64104 33195 ft 581 kts 50°
2026-05-05 08:13 36.40457 139.72226 33193 ft 579 kts 50°
2026-05-05 08:14 36.45181 139.80283 33191 ft 577 kts 49°
2026-05-05 08:14 36.49878 139.88343 33188 ft 576 kts 51°
2026-05-05 08:15 36.54273 139.96676 33185 ft 576 kts 54°
2026-05-05 08:15 36.58627 140.05028 33179 ft 575 kts 53°
2026-05-05 08:16 36.63023 140.13331 33183 ft 574 kts 53°
2026-05-05 08:16 36.67404 140.21652 33192 ft 575 kts 53°
2026-05-05 08:17 36.71780 140.29993 33185 ft 575 kts 53°
2026-05-05 08:17 36.75828 140.38597 33174 ft 578 kts 63°
2026-05-05 08:18 36.79061 140.47759 33204 ft 577 kts 65°
2026-05-05 08:18 36.82229 140.56944 33200 ft 576 kts 64°
2026-05-05 08:19 36.85452 140.66098 33207 ft 575 kts 64°
2026-05-05 08:19 36.88691 140.75230 33218 ft 574 kts 64°
2026-05-05 08:20 36.91907 140.84340 33222 ft 573 kts 64°
2026-05-05 08:20 36.95091 140.93403 33219 ft 573 kts 64°
2026-05-05 08:21 36.98280 141.02516 33216 ft 573 kts 64°
2026-05-05 08:21 37.01461 141.11656 33214 ft 573 kts 64°
2026-05-05 08:22 37.04636 141.20813 33217 ft 573 kts 64°
2026-05-05 08:22 37.07806 141.29979 33220 ft 574 kts 65°
2026-05-05 08:23 37.10974 141.39163 33224 ft 575 kts 65°
2026-05-05 08:23 37.14143 141.48381 33227 ft 576 kts 65°
2026-05-05 08:24 37.17305 141.57607 33229 ft 576 kts 65°
2026-05-05 08:24 37.20461 141.66845 33233 ft 576 kts 65°
2026-05-05 08:25 37.23613 141.76099 33223 ft 576 kts 65°
2026-05-05 08:25 37.26754 141.85350 33225 ft 576 kts 65°
2026-05-05 08:26 37.29883 141.94592 33223 ft 576 kts 65°
2026-05-05 08:26 37.33005 142.03847 33229 ft 575 kts 65°
2026-05-05 08:27 37.36121 142.13108 33228 ft 575 kts 65°
2026-05-05 08:27 37.39223 142.22362 33231 ft 574 kts 65°
2026-05-05 08:28 37.42319 142.31623 33226 ft 574 kts 65°
2026-05-05 08:28 37.45406 142.40889 33228 ft 574 kts 65°
2026-05-05 08:29 37.48488 142.50169 33234 ft 574 kts 66°
2026-05-05 08:30 37.53094 142.64094 33232 ft 574 kts 66°
2026-05-05 08:30 37.56154 142.73383 33232 ft 574 kts 66°
2026-05-05 08:31 37.59153 142.82722 33238 ft 575 kts 66°
2026-05-05 08:31 37.62119 142.92074 33235 ft 575 kts 66°
2026-05-05 08:32 37.65094 143.01441 33238 ft 575 kts 66°
2026-05-05 08:32 37.68051 143.10761 33238 ft 576 kts 66°
2026-05-05 08:33 37.71017 143.20153 33240 ft 576 kts 66°
2026-05-05 08:33 37.73971 143.29564 33246 ft 576 kts 67°
2026-05-05 08:34 37.76920 143.38984 33240 ft 577 kts 67°
2026-05-05 08:34 37.79997 143.48349 33222 ft 574 kts 59°
2026-05-05 08:35 37.84402 143.56649 33245 ft 565 kts 45°
2026-05-05 08:35 37.89961 143.63497 33261 ft 554 kts 33°
2026-05-05 08:36 37.95852 143.69796 33236 ft 554 kts 33°
2026-05-05 08:36 38.01719 143.76147 33236 ft 555 kts 34°
2026-05-05 08:37 38.07549 143.82576 33238 ft 555 kts 34°
2026-05-05 08:37 38.13360 143.89032 33243 ft 554 kts 34°
2026-05-05 08:38 38.19155 143.95478 33238 ft 553 kts 34°
2026-05-05 08:38 38.24935 144.01912 33231 ft 551 kts 34°
2026-05-05 08:39 38.30686 144.08325 33230 ft 549 kts 34°
2026-05-05 08:39 38.36418 144.14732 33228 ft 547 kts 34°
2026-05-05 08:40 38.41168 144.20052 33231 ft 546 kts 34°
2026-05-05 08:40 38.46857 144.26437 33226 ft 544 kts 34°
2026-05-05 08:41 38.52539 144.32828 33232 ft 544 kts 34°
2026-05-05 08:41 38.58201 144.39211 33236 ft 543 kts 35°
2026-05-05 08:42 38.63870 144.45616 33229 ft 543 kts 35°
2026-05-05 08:42 38.69520 144.52013 33232 ft 542 kts 35°
2026-05-05 08:43 38.75154 144.58431 33230 ft 542 kts 35°
2026-05-05 08:43 38.80778 144.64870 33222 ft 542 kts 35°
2026-05-05 08:44 38.86346 144.71258 33223 ft 541 kts 35°
2026-05-05 08:44 38.91955 144.77703 33221 ft 540 kts 35°
2026-05-05 08:45 38.97542 144.84136 33224 ft 540 kts 35°
2026-05-05 08:45 39.03129 144.90582 33219 ft 539 kts 35°
2026-05-05 08:46 39.08711 144.97038 33216 ft 539 kts 35°
2026-05-05 08:46 39.14281 145.03495 33215 ft 538 kts 35°
2026-05-05 08:47 39.19844 145.09957 33219 ft 538 kts 35°
2026-05-05 08:47 39.25391 145.16415 33210 ft 537 kts 36°
2026-05-05 08:48 39.30923 145.22872 33210 ft 536 kts 36°
2026-05-05 08:48 39.36443 145.29327 33205 ft 534 kts 36°
2026-05-05 08:49 39.41942 145.35773 33202 ft 533 kts 36°
2026-05-05 08:49 39.47417 145.42204 33199 ft 531 kts 36°
2026-05-05 08:50 39.52885 145.48641 33202 ft 530 kts 36°
2026-05-05 08:50 39.58321 145.55054 33193 ft 529 kts 36°
2026-05-05 08:51 39.63725 145.61445 33198 ft 527 kts 36°
2026-05-05 08:51 39.69135 145.67857 33205 ft 526 kts 36°
2026-05-05 08:52 39.74529 145.74263 33201 ft 525 kts 36°
2026-05-05 08:52 39.79905 145.80663 33195 ft 523 kts 36°
2026-05-05 08:53 39.85253 145.87043 33189 ft 521 kts 37°
2026-05-05 08:53 39.90584 145.93417 33187 ft 519 kts 37°
2026-05-05 08:54 39.95891 145.99776 33186 ft 517 kts 37°
2026-05-05 08:54 40.01175 146.06123 33182 ft 515 kts 37°
2026-05-05 08:55 40.06437 146.12455 33176 ft 514 kts 37°
2026-05-05 08:55 40.11683 146.18783 33179 ft 513 kts 37°
2026-05-05 08:56 40.16921 146.25114 33178 ft 513 kts 37°
2026-05-05 08:56 40.22115 146.31406 33181 ft 513 kts 37°
2026-05-05 08:57 40.27348 146.37759 33180 ft 513 kts 37°
2026-05-05 08:57 40.32584 146.44130 33181 ft 514 kts 36°
2026-05-05 08:58 40.37818 146.50513 33178 ft 514 kts 36°
2026-05-05 08:58 40.43052 146.56912 33173 ft 514 kts 36°
2026-05-05 08:59 40.48276 146.63313 33165 ft 514 kts 36°
2026-05-05 08:59 40.53491 146.69716 33156 ft 513 kts 36°
2026-05-05 09:00 40.58705 146.76132 33156 ft 512 kts 36°
2026-05-05 09:00 40.63905 146.82546 33157 ft 512 kts 36°
2026-05-05 09:01 40.69104 146.88972 33158 ft 512 kts 36°
2026-05-05 09:01 40.74262 146.95361 33155 ft 512 kts 36°
2026-05-05 09:02 40.79449 147.01802 33155 ft 512 kts 36°
2026-05-05 09:02 40.84633 147.08253 33157 ft 512 kts 36°
2026-05-05 09:03 40.89819 147.14721 33151 ft 512 kts 36°
2026-05-05 09:03 40.94996 147.21193 33148 ft 512 kts 36°
2026-05-05 09:04 41.00160 147.27663 33143 ft 511 kts 36°
2026-05-05 09:04 41.05320 147.34143 33141 ft 511 kts 36°
2026-05-05 09:05 41.10480 147.40637 33131 ft 511 kts 36°
2026-05-05 09:05 41.15626 147.47129 33134 ft 510 kts 36°
2026-05-05 09:06 41.20766 147.53628 33136 ft 510 kts 36°
2026-05-05 09:06 41.25907 147.60143 33132 ft 510 kts 37°
2026-05-05 09:07 41.31043 147.66667 33128 ft 511 kts 37°
2026-05-05 09:07 41.36147 147.73163 33129 ft 511 kts 37°
2026-05-05 09:08 41.41277 147.79709 33129 ft 511 kts 37°
2026-05-05 09:08 41.46402 147.86264 33125 ft 511 kts 37°
2026-05-05 09:09 41.51561 147.92879 33120 ft 511 kts 37°
2026-05-05 09:09 41.56649 147.99416 33121 ft 510 kts 37°
2026-05-05 09:10 41.61759 148.05998 33115 ft 510 kts 37°
2026-05-05 09:10 41.66858 148.12581 33110 ft 509 kts 37°
2026-05-05 09:11 41.71950 148.19169 33108 ft 509 kts 37°
2026-05-05 09:11 41.77020 148.25774 33102 ft 509 kts 38°
2026-05-05 09:12 41.82062 148.32445 33098 ft 509 kts 38°
2026-05-05 09:12 41.87089 148.39127 33100 ft 509 kts 38°
2026-05-05 09:13 41.92114 148.45808 33101 ft 509 kts 38°
2026-05-05 09:13 41.97139 148.52499 33097 ft 508 kts 38°
2026-05-05 09:14 42.02163 148.59201 33104 ft 509 kts 38°
2026-05-05 09:14 42.07176 148.65906 33094 ft 508 kts 38°
2026-05-05 09:15 42.12190 148.72628 33093 ft 508 kts 38°
2026-05-05 09:15 42.17199 148.79359 33094 ft 509 kts 38°
2026-05-05 09:16 42.22202 148.86099 33088 ft 508 kts 38°
2026-05-05 09:16 42.27205 148.92854 33085 ft 508 kts 38°
2026-05-05 09:17 42.32203 148.99619 33079 ft 509 kts 39°
2026-05-05 09:17 42.37197 149.06393 33084 ft 509 kts 39°
2026-05-05 09:18 42.42189 149.13181 33074 ft 509 kts 39°
2026-05-05 09:18 42.47179 149.19984 33083 ft 509 kts 39°
2026-05-05 09:19 42.52173 149.26807 33072 ft 510 kts 39°
2026-05-05 09:19 42.57165 149.33646 33078 ft 510 kts 39°
2026-05-05 09:20 42.62161 149.40506 33073 ft 511 kts 39°
2026-05-05 09:20 42.67127 149.47342 33064 ft 512 kts 39°
2026-05-05 09:21 42.72125 149.54238 33067 ft 512 kts 39°
2026-05-05 09:21 42.77121 149.61148 33067 ft 512 kts 40°
2026-05-05 09:22 42.82122 149.68081 33061 ft 513 kts 40°
2026-05-05 09:22 42.87122 149.75031 33057 ft 513 kts 40°
2026-05-05 09:23 42.92120 149.81995 33055 ft 514 kts 40°
2026-05-05 09:23 42.97116 149.88974 33054 ft 514 kts 40°
2026-05-05 09:24 43.02115 149.95974 33050 ft 515 kts 40°
2026-05-05 09:24 43.07112 150.02986 33049 ft 515 kts 40°
2026-05-05 09:25 43.12106 150.10013 33043 ft 515 kts 40°
2026-05-05 09:25 43.17067 150.17012 33045 ft 516 kts 40°
2026-05-05 09:26 43.22068 150.24085 33041 ft 517 kts 40°
2026-05-05 09:26 43.27066 150.31173 33041 ft 518 kts 40°
2026-05-05 09:27 43.32074 150.38292 33037 ft 518 kts 41°
2026-05-05 09:27 43.37082 150.45428 33037 ft 519 kts 41°
2026-05-05 09:28 43.42086 150.52577 33032 ft 519 kts 41°
2026-05-05 09:28 43.46282 150.58585 33026 ft 520 kts 41°
2026-05-05 09:29 43.51257 150.65726 33026 ft 520 kts 41°
2026-05-05 09:29 43.56264 150.72932 33024 ft 520 kts 41°
2026-05-05 09:30 43.61274 150.80159 33019 ft 521 kts 41°
2026-05-05 09:30 43.66277 150.87395 33018 ft 521 kts 41°
2026-05-05 09:31 43.71283 150.94655 33012 ft 522 kts 41°
2026-05-05 09:31 43.76290 151.01935 33007 ft 523 kts 41°
2026-05-05 09:32 43.81305 151.09245 33004 ft 524 kts 41°
2026-05-05 09:32 43.86317 151.16570 32998 ft 525 kts 42°
2026-05-05 09:33 43.91338 151.23928 32993 ft 526 kts 42°
2026-05-05 09:33 43.96363 151.31310 32990 ft 527 kts 42°
2026-05-05 09:34 44.01392 151.38718 32986 ft 528 kts 42°
2026-05-05 09:34 44.06427 151.46155 32986 ft 529 kts 42°
2026-05-05 09:35 44.11467 151.53620 32988 ft 529 kts 42°
2026-05-05 09:35 44.18991 151.64800 32975 ft 530 kts 43°
2026-05-05 09:36 44.24024 151.72303 32969 ft 530 kts 43°
2026-05-05 09:36 44.29057 151.79828 32960 ft 530 kts 43°
2026-05-05 09:37 44.34082 151.87360 32954 ft 530 kts 43°
2026-05-05 09:37 44.39108 151.94913 32954 ft 530 kts 43°
2026-05-05 09:38 44.44127 152.02476 32951 ft 531 kts 43°
2026-05-05 09:38 44.49146 152.10062 32948 ft 531 kts 43°
2026-05-05 09:39 44.54167 152.17669 32939 ft 532 kts 43°
2026-05-05 09:39 44.59187 152.25296 32934 ft 533 kts 43°
2026-05-05 09:40 44.64211 152.32952 32923 ft 534 kts 43°
2026-05-05 09:40 44.69241 152.40635 32923 ft 534 kts 43°
2026-05-05 09:41 44.74270 152.48340 32922 ft 535 kts 43°
2026-05-05 09:41 44.79295 152.56060 32920 ft 536 kts 44°
2026-05-05 09:42 44.84329 152.63816 32912 ft 536 kts 44°
2026-05-05 09:42 44.89365 152.71595 32907 ft 537 kts 44°
2026-05-05 09:43 44.94366 152.79344 32906 ft 537 kts 44°
2026-05-05 09:43 44.99395 152.87156 32900 ft 537 kts 44°
2026-05-05 09:44 45.04419 152.94983 32898 ft 538 kts 44°
2026-05-05 09:44 45.09440 153.02828 32890 ft 538 kts 44°
2026-05-05 09:45 45.14454 153.10684 32882 ft 538 kts 44°
2026-05-05 09:45 45.19466 153.18559 32881 ft 538 kts 44°
2026-05-05 09:46 45.24471 153.26446 32877 ft 538 kts 44°
2026-05-05 09:46 45.29475 153.34352 32874 ft 539 kts 45°
2026-05-05 09:47 45.34478 153.42282 32871 ft 539 kts 45°
2026-05-05 09:47 45.39476 153.50224 32870 ft 539 kts 45°
2026-05-05 09:48 45.44476 153.58195 32860 ft 540 kts 45°
2026-05-05 09:48 45.49473 153.66184 32857 ft 540 kts 45°
2026-05-05 09:49 45.54466 153.74191 32854 ft 540 kts 45°
2026-05-05 09:49 45.59427 153.82247 32849 ft 540 kts 46°
2026-05-05 09:50 45.64368 153.90328 32843 ft 540 kts 46°
2026-05-05 09:50 45.69306 153.98420 32844 ft 540 kts 46°
2026-05-05 09:51 45.74247 154.06530 32836 ft 540 kts 46°
2026-05-05 09:51 45.79147 154.14595 32832 ft 541 kts 46°
2026-05-05 09:52 45.84078 154.22734 32823 ft 541 kts 46°
2026-05-05 09:52 45.89011 154.30899 32824 ft 541 kts 46°
2026-05-05 09:53 45.93938 154.39079 32819 ft 542 kts 46°
2026-05-05 09:53 45.98868 154.47291 32816 ft 542 kts 46°
2026-05-05 09:54 46.03792 154.55515 32815 ft 543 kts 46°
2026-05-05 09:54 46.08715 154.63764 32806 ft 543 kts 47°
2026-05-05 09:55 46.13634 154.72030 32802 ft 543 kts 47°
2026-05-05 09:55 46.18548 154.80312 32797 ft 543 kts 47°
2026-05-05 09:56 46.23459 154.88614 32794 ft 544 kts 47°
2026-05-05 09:56 46.28364 154.96931 32792 ft 544 kts 47°
2026-05-05 09:57 46.33270 155.05276 32787 ft 544 kts 47°
2026-05-05 09:57 46.38172 155.13639 32778 ft 545 kts 47°
2026-05-05 09:58 46.43070 155.22020 32773 ft 545 kts 47°
2026-05-05 09:58 46.47958 155.30409 32768 ft 545 kts 47°
2026-05-05 09:59 46.52846 155.38824 32765 ft 545 kts 48°
2026-05-05 09:59 46.57693 155.47193 32747 ft 545 kts 48°
2026-05-05 10:00 46.62599 155.55692 32739 ft 545 kts 48°
2026-05-05 10:00 46.67438 155.64100 32747 ft 546 kts 48°
2026-05-05 10:01 46.72303 155.72580 32744 ft 546 kts 48°
2026-05-05 10:01 46.77170 155.81088 32744 ft 546 kts 48°
2026-05-05 10:02 46.82027 155.89606 32729 ft 546 kts 49°
2026-05-05 10:02 46.86884 155.98151 32726 ft 546 kts 49°
2026-05-05 10:03 46.91733 156.06707 32725 ft 546 kts 49°
2026-05-05 10:03 46.96576 156.15281 32710 ft 547 kts 49°
2026-05-05 10:04 47.01422 156.23886 32704 ft 547 kts 49°
2026-05-05 10:04 47.06261 156.32506 32696 ft 547 kts 49°
2026-05-05 10:05 47.11062 156.41085 32706 ft 548 kts 49°
2026-05-05 10:05 47.15897 156.49753 32689 ft 548 kts 49°
2026-05-05 10:06 47.20729 156.58441 32681 ft 549 kts 49°
2026-05-05 10:06 47.25552 156.67141 32676 ft 549 kts 50°
2026-05-05 10:07 47.30373 156.75867 32679 ft 550 kts 50°
2026-05-05 10:07 47.35198 156.84627 32662 ft 550 kts 50°
2026-05-05 10:08 47.40021 156.93412 32670 ft 551 kts 50°
2026-05-05 10:08 47.44841 157.02220 32658 ft 552 kts 50°
2026-05-05 10:09 47.49662 157.11059 32652 ft 552 kts 50°
2026-05-05 10:09 47.54483 157.19925 32650 ft 553 kts 50°
2026-05-05 10:10 47.59293 157.28801 32643 ft 553 kts 50°
2026-05-05 10:10 47.64100 157.37700 32636 ft 553 kts 51°
2026-05-05 10:11 47.68899 157.46613 32632 ft 553 kts 51°
2026-05-05 10:11 47.73693 157.55548 32628 ft 553 kts 51°
2026-05-05 10:12 47.78484 157.64504 32624 ft 554 kts 51°
2026-05-05 10:12 47.83239 157.73424 32615 ft 554 kts 51°
2026-05-05 10:13 47.88019 157.82420 32602 ft 554 kts 51°
2026-05-05 10:13 47.92799 157.91445 32606 ft 555 kts 51°
2026-05-05 10:14 47.97576 158.00496 32600 ft 555 kts 51°
2026-05-05 10:14 48.02347 158.09565 32590 ft 555 kts 51°
2026-05-05 10:15 48.07111 158.18651 32591 ft 556 kts 52°
2026-05-05 10:15 48.11071 158.26226 32582 ft 556 kts 52°
2026-05-05 10:16 48.15824 158.35348 32580 ft 556 kts 52°
2026-05-05 10:16 48.20567 158.44481 32571 ft 555 kts 52°
2026-05-05 10:17 48.25305 158.53635 32572 ft 555 kts 52°
2026-05-05 10:17 48.30036 158.62806 32559 ft 555 kts 52°
2026-05-05 10:18 48.34759 158.71993 32560 ft 556 kts 52°
2026-05-05 10:18 48.39478 158.81203 32550 ft 556 kts 52°
2026-05-05 10:19 48.44191 158.90434 32550 ft 556 kts 52°
2026-05-05 10:19 48.48896 158.99681 32543 ft 556 kts 53°
2026-05-05 10:20 48.53600 159.08957 32541 ft 557 kts 53°
2026-05-05 10:20 48.58301 159.18260 32533 ft 557 kts 53°
2026-05-05 10:21 48.62996 159.27583 32532 ft 557 kts 53°
2026-05-05 10:21 48.67653 159.36861 32530 ft 558 kts 53°
2026-05-05 10:22 48.72336 159.46225 32522 ft 558 kts 53°
2026-05-05 10:22 48.77019 159.55622 32520 ft 559 kts 53°
2026-05-05 10:23 48.81693 159.65032 32522 ft 559 kts 53°
2026-05-05 10:23 48.86362 159.74466 32512 ft 559 kts 54°
2026-05-05 10:24 48.91026 159.83926 32513 ft 560 kts 54°
2026-05-05 10:24 48.95690 159.93417 32503 ft 560 kts 54°
2026-05-05 10:25 49.00340 160.02922 32493 ft 560 kts 54°
2026-05-05 10:25 49.04889 160.12564 32500 ft 560 kts 56°
2026-05-05 10:26 49.09380 160.22280 32498 ft 561 kts 56°
2026-05-05 10:26 49.13877 160.32002 32492 ft 561 kts 56°
2026-05-05 10:27 49.18388 160.41743 32493 ft 561 kts 56°
2026-05-05 10:27 49.22887 160.51483 32486 ft 561 kts 56°
2026-05-05 10:28 49.27385 160.61261 32485 ft 561 kts 56°
2026-05-05 10:28 49.31872 160.71056 32481 ft 562 kts 56°
2026-05-05 10:29 49.36352 160.80871 32478 ft 562 kts 57°
2026-05-05 10:29 49.40829 160.90715 32479 ft 563 kts 57°
2026-05-05 10:30 49.45302 161.00589 32475 ft 563 kts 57°
2026-05-05 10:30 49.49770 161.10484 32472 ft 564 kts 57°
2026-05-05 10:31 49.54224 161.20415 32470 ft 564 kts 57°
2026-05-05 10:31 49.58652 161.30387 32468 ft 564 kts 57°
2026-05-05 10:32 49.63074 161.40391 32466 ft 564 kts 58°
2026-05-05 10:32 49.67458 161.50337 32464 ft 564 kts 58°
2026-05-05 10:33 49.71863 161.60359 32458 ft 564 kts 58°
2026-05-05 10:33 49.76269 161.70423 32444 ft 566 kts 58°
2026-05-05 10:34 49.80690 161.80561 32469 ft 570 kts 58°
2026-05-05 10:34 49.85132 161.90787 32463 ft 574 kts 58°
2026-05-05 10:35 49.89594 162.01098 32464 ft 577 kts 58°
2026-05-05 10:35 49.94056 162.11447 32455 ft 577 kts 59°
2026-05-05 10:36 49.98505 162.21806 32450 ft 576 kts 59°
2026-05-05 10:36 50.02939 162.32172 32450 ft 574 kts 59°
2026-05-05 10:37 50.07349 162.42523 32454 ft 573 kts 59°
2026-05-05 10:37 50.11741 162.52875 32469 ft 572 kts 59°
2026-05-05 10:38 50.16116 162.63225 32465 ft 572 kts 59°
2026-05-05 10:38 50.20489 162.73611 32462 ft 573 kts 59°
2026-05-05 10:39 50.24860 162.84036 32467 ft 573 kts 60°
2026-05-05 10:39 50.29221 162.94477 32467 ft 574 kts 60°
2026-05-05 10:40 50.33582 163.04958 32467 ft 575 kts 60°
2026-05-05 10:40 50.37904 163.15389 32469 ft 575 kts 60°
2026-05-05 10:41 50.42254 163.25929 32468 ft 576 kts 60°
2026-05-05 10:41 50.46595 163.36489 32465 ft 577 kts 60°
2026-05-05 10:42 50.53104 163.52403 32464 ft 578 kts 60°
2026-05-05 10:43 50.57435 163.63047 32467 ft 578 kts 61°
2026-05-05 10:43 50.61766 163.73732 32478 ft 579 kts 61°
2026-05-05 10:44 50.66084 163.84431 32470 ft 579 kts 61°
2026-05-05 10:44 50.70400 163.95169 32473 ft 580 kts 61°
2026-05-05 10:45 50.74706 164.05928 32469 ft 580 kts 61°
2026-05-05 10:45 50.79004 164.16710 32465 ft 580 kts 61°
2026-05-05 10:46 50.83293 164.27516 32480 ft 581 kts 62°
2026-05-05 10:46 50.87580 164.38359 32480 ft 581 kts 62°
2026-05-05 10:47 50.91863 164.49221 32479 ft 581 kts 62°
2026-05-05 10:47 50.96160 164.60089 32483 ft 582 kts 62°
2026-05-05 10:48 51.00452 164.70975 32492 ft 582 kts 62°
2026-05-05 10:48 51.04730 164.81884 32492 ft 582 kts 62°
2026-05-05 10:49 51.08991 164.92806 32493 ft 582 kts 62°
2026-05-05 10:49 51.13248 165.03762 32502 ft 582 kts 62°
2026-05-05 10:50 51.17492 165.14733 32505 ft 582 kts 62°
2026-05-05 10:50 51.21701 165.25657 32524 ft 582 kts 62°
2026-05-05 10:51 51.25929 165.36679 32516 ft 583 kts 62°
2026-05-05 10:51 51.30156 165.47744 32521 ft 583 kts 62°
2026-05-05 10:52 51.34374 165.58834 32528 ft 584 kts 63°
2026-05-05 10:52 51.38591 165.69946 32541 ft 584 kts 62°
2026-05-05 10:53 51.42814 165.81073 32552 ft 585 kts 62°
2026-05-05 10:53 51.47032 165.92228 32555 ft 585 kts 63°
2026-05-05 10:54 51.51243 166.03426 32560 ft 586 kts 63°
2026-05-05 10:54 51.55444 166.14650 32571 ft 586 kts 63°
2026-05-05 10:55 51.59637 166.25904 32589 ft 587 kts 63°
2026-05-05 10:55 51.63803 166.37131 32591 ft 588 kts 63°
2026-05-05 10:56 51.67983 166.48449 32597 ft 588 kts 63°
2026-05-05 10:56 51.72157 166.59799 32606 ft 589 kts 63°
2026-05-05 10:57 51.76324 166.71181 32622 ft 589 kts 63°
2026-05-05 10:57 51.80483 166.82590 32633 ft 589 kts 63°
2026-05-05 10:58 51.84629 166.94018 32645 ft 589 kts 63°
2026-05-05 10:58 51.88761 167.05457 32654 ft 589 kts 63°
2026-05-05 10:59 51.92885 167.16927 32661 ft 589 kts 63°
2026-05-05 10:59 51.96996 167.28413 32671 ft 589 kts 63°
2026-05-05 11:00 52.01099 167.39930 32683 ft 590 kts 63°
2026-05-05 11:00 52.05195 167.51479 32700 ft 590 kts 63°
2026-05-05 11:01 52.09281 167.63053 32706 ft 591 kts 63°
2026-05-05 11:01 52.13362 167.74667 32720 ft 591 kts 63°
2026-05-05 11:02 52.16748 167.84341 32719 ft 591 kts 63°
2026-05-05 11:02 52.20810 167.95999 32728 ft 591 kts 63°
2026-05-05 11:03 52.24859 168.07675 32740 ft 591 kts 63°
2026-05-05 11:03 52.28895 168.19366 32746 ft 591 kts 63°
2026-05-05 11:04 52.32913 168.31061 32749 ft 590 kts 63°
2026-05-05 11:04 52.36919 168.42775 32756 ft 590 kts 63°
2026-05-05 11:05 52.40910 168.54501 32780 ft 589 kts 63°
2026-05-05 11:05 52.44887 168.66239 32786 ft 588 kts 63°
2026-05-05 11:06 52.48844 168.77976 32791 ft 588 kts 63°
2026-05-05 11:06 52.52785 168.89720 32797 ft 587 kts 63°
2026-05-05 11:07 52.56708 169.01467 32811 ft 586 kts 63°
2026-05-05 11:07 52.60614 169.13217 32823 ft 585 kts 63°
2026-05-05 11:08 52.64476 169.24893 32832 ft 584 kts 63°
2026-05-05 11:08 52.68345 169.36643 32840 ft 583 kts 63°
2026-05-05 11:09 52.72194 169.48389 32845 ft 582 kts 63°
2026-05-05 11:09 52.76028 169.60147 32863 ft 581 kts 63°
2026-05-05 11:10 52.79848 169.71915 32867 ft 580 kts 63°
2026-05-05 11:10 52.83643 169.83667 32876 ft 579 kts 62°
2026-05-05 11:11 52.87421 169.95422 32894 ft 578 kts 62°
2026-05-05 11:11 52.91189 170.07194 32903 ft 577 kts 62°
2026-05-05 11:12 52.95374 170.18499 32915 ft 575 kts 52°
2026-05-05 11:12 53.00494 170.28644 32930 ft 572 kts 46°
2026-05-05 11:13 53.05709 170.38487 32925 ft 571 kts 46°
2026-05-05 11:13 53.10913 170.48455 32935 ft 570 kts 47°
2026-05-05 11:14 53.16060 170.58475 32948 ft 569 kts 47°
2026-05-05 11:14 53.21178 170.68512 32949 ft 567 kts 47°
2026-05-05 11:15 53.26274 170.78536 32956 ft 566 kts 47°
2026-05-05 11:15 53.31356 170.88562 32973 ft 564 kts 47°
2026-05-05 11:16 53.36409 170.98566 32993 ft 564 kts 47°
2026-05-05 11:16 53.38946 171.03605 33182 ft 566 kts 47°
2026-05-05 11:16 53.41479 171.08645 33512 ft 565 kts 47°
2026-05-05 11:16 53.44007 171.13689 33863 ft 564 kts 47°
2026-05-05 11:17 53.46528 171.18729 34170 ft 564 kts 47°
2026-05-05 11:17 53.49044 171.23768 34495 ft 562 kts 47°
2026-05-05 11:17 53.51548 171.28795 34848 ft 560 kts 47°
2026-05-05 11:17 53.54041 171.33809 35048 ft 561 kts 47°
2026-05-05 11:18 53.56554 171.38870 35003 ft 563 kts 47°
2026-05-05 11:18 53.61533 171.48935 35011 ft 555 kts 47°
2026-05-05 11:19 53.66439 171.58894 35021 ft 550 kts 47°
2026-05-05 11:19 53.71278 171.68751 35032 ft 548 kts 47°
2026-05-05 11:20 53.76122 171.78656 35039 ft 546 kts 47°
2026-05-05 11:20 53.80951 171.88571 35048 ft 546 kts 47°
2026-05-05 11:21 53.85764 171.98495 35053 ft 545 kts 47°
2026-05-05 11:21 53.90572 172.08448 35060 ft 545 kts 47°
2026-05-05 11:22 53.95370 172.18420 35064 ft 545 kts 47°
2026-05-05 11:22 54.00149 172.28393 35068 ft 544 kts 47°
2026-05-05 11:23 54.04911 172.38372 35072 ft 543 kts 47°
2026-05-05 11:23 54.09652 172.48347 35076 ft 541 kts 47°
2026-05-05 11:24 54.14374 172.58320 35082 ft 539 kts 47°
2026-05-05 11:24 54.19070 172.68281 35089 ft 538 kts 47°
2026-05-05 11:25 54.23743 172.78230 35094 ft 536 kts 48°
2026-05-05 11:25 54.28351 172.88233 35100 ft 535 kts 49°
2026-05-05 11:26 54.32807 172.98430 35105 ft 534 kts 50°
2026-05-05 11:26 54.37220 173.08656 35111 ft 533 kts 50°
2026-05-05 11:27 54.41632 173.18852 35117 ft 532 kts 50°
2026-05-05 11:27 54.46044 173.29035 35124 ft 531 kts 50°
2026-05-05 11:28 54.50446 173.39224 35130 ft 530 kts 50°
2026-05-05 11:28 54.54825 173.49408 35135 ft 529 kts 50°
2026-05-05 11:29 54.59191 173.59608 35137 ft 528 kts 50°
2026-05-05 11:29 54.63517 173.69754 35138 ft 528 kts 50°
2026-05-05 11:30 54.67854 173.79971 35149 ft 527 kts 50°
2026-05-05 11:30 54.72178 173.90196 35149 ft 526 kts 50°
2026-05-05 11:31 54.76487 174.00430 35156 ft 526 kts 50°
2026-05-05 11:31 54.80785 174.10679 35162 ft 525 kts 50°
2026-05-05 11:32 54.85070 174.20940 35166 ft 525 kts 50°
2026-05-05 11:32 54.89342 174.31213 35171 ft 525 kts 50°
2026-05-05 11:33 54.93605 174.41506 35172 ft 524 kts 50°
2026-05-05 11:33 54.97828 174.51746 35178 ft 524 kts 50°
2026-05-05 11:34 55.02066 174.62065 35188 ft 523 kts 50°
2026-05-05 11:34 55.06293 174.72398 35187 ft 523 kts 50°
2026-05-05 11:35 55.10506 174.82742 35191 ft 523 kts 50°
2026-05-05 11:35 55.14706 174.93097 35193 ft 522 kts 50°
2026-05-05 11:36 55.18894 175.03468 35196 ft 521 kts 50°
2026-05-05 11:36 55.23065 175.13837 35198 ft 520 kts 50°
2026-05-05 11:37 55.27222 175.24217 35203 ft 520 kts 50°
2026-05-05 11:37 55.31362 175.34596 35211 ft 519 kts 50°
2026-05-05 11:38 55.35487 175.44985 35214 ft 518 kts 50°
2026-05-05 11:38 55.39601 175.55386 35215 ft 517 kts 50°
2026-05-05 11:39 55.43697 175.65786 35218 ft 516 kts 50°
2026-05-05 11:39 55.47776 175.76188 35225 ft 516 kts 50°
2026-05-05 11:40 55.51843 175.86603 35226 ft 515 kts 50°
2026-05-05 11:40 55.55897 175.97028 35234 ft 515 kts 50°
2026-05-05 11:41 55.59911 176.07395 35233 ft 514 kts 50°
2026-05-05 11:41 55.63940 176.17845 35240 ft 514 kts 50°
2026-05-05 11:42 55.67957 176.28308 35242 ft 513 kts 50°
2026-05-05 11:42 55.71958 176.38774 35247 ft 513 kts 50°
2026-05-05 11:43 55.75945 176.49250 35245 ft 512 kts 50°
2026-05-05 11:43 55.79924 176.59747 35247 ft 512 kts 50°
2026-05-05 11:44 55.83891 176.70259 35253 ft 511 kts 50°
2026-05-05 11:44 55.87844 176.80777 35256 ft 511 kts 50°
2026-05-05 11:45 55.91785 176.91311 35261 ft 511 kts 50°
2026-05-05 11:45 55.95712 177.01853 35253 ft 510 kts 50°
2026-05-05 11:46 55.99626 177.12402 35258 ft 509 kts 50°
2026-05-05 11:46 56.03530 177.22973 35263 ft 509 kts 50°
2026-05-05 11:47 56.07419 177.33549 35265 ft 508 kts 50°
2026-05-05 11:47 56.11292 177.44127 35266 ft 508 kts 50°
2026-05-05 11:48 56.17053 177.59946 35268 ft 507 kts 50°
2026-05-05 11:48 56.20892 177.70546 35270 ft 506 kts 50°
2026-05-05 11:49 56.24724 177.81172 35271 ft 506 kts 50°
2026-05-05 11:49 56.28536 177.91789 35271 ft 505 kts 50°
2026-05-05 11:50 56.32338 178.02425 35278 ft 505 kts 50°
2026-05-05 11:50 56.35490 178.11277 35278 ft 504 kts 50°
2026-05-05 11:51 56.39270 178.21937 35279 ft 504 kts 51°
2026-05-05 11:51 56.43035 178.32599 35279 ft 503 kts 51°
2026-05-05 11:52 56.46790 178.43282 35278 ft 503 kts 51°
2026-05-05 11:52 56.50528 178.53963 35277 ft 502 kts 51°
2026-05-05 11:53 56.54248 178.64641 35276 ft 501 kts 52°
2026-05-05 11:53 56.57961 178.75347 35278 ft 500 kts 52°
2026-05-05 11:54 56.61629 178.85967 35278 ft 499 kts 52°
2026-05-05 11:54 56.65327 178.96723 35276 ft 498 kts 53°
2026-05-05 11:55 56.68959 179.07335 35279 ft 497 kts 53°
2026-05-05 11:55 56.72599 179.18017 35281 ft 496 kts 53°
2026-05-05 11:56 56.76219 179.28690 35276 ft 494 kts 53°
2026-05-05 11:56 56.79822 179.39356 35277 ft 493 kts 54°
2026-05-05 11:57 56.83405 179.50012 35275 ft 492 kts 54°
2026-05-05 11:57 56.86971 179.60665 35277 ft 491 kts 54°
2026-05-05 11:58 56.90520 179.71317 35277 ft 490 kts 54°
2026-05-05 11:58 56.94052 179.81962 35279 ft 489 kts 54°
2026-05-05 11:59 56.97570 179.92608 35282 ft 488 kts 54°
2026-05-05 11:59 57.00943 -179.96596 35282 ft 490 kts 60°
2026-05-05 12:00 57.03808 -179.85237 35286 ft 490 kts 62°
2026-05-05 12:00 57.06603 -179.73828 35284 ft 490 kts 62°
2026-05-05 12:01 57.09407 -179.62431 35283 ft 489 kts 62°
2026-05-05 12:01 57.12219 -179.51048 35281 ft 488 kts 62°
2026-05-05 12:02 57.15019 -179.39687 35282 ft 487 kts 62°
2026-05-05 12:02 57.17790 -179.28389 35277 ft 486 kts 62°
2026-05-05 12:03 57.20560 -179.17029 35281 ft 485 kts 62°
2026-05-05 12:03 57.23312 -179.05682 35281 ft 484 kts 62°
2026-05-05 12:04 57.26050 -178.94333 35276 ft 483 kts 62°
2026-05-05 12:04 57.28772 -178.82987 35283 ft 482 kts 62°
2026-05-05 12:05 57.31477 -178.71660 35286 ft 481 kts 63°
2026-05-05 12:05 57.34169 -178.60323 35283 ft 481 kts 63°
2026-05-05 12:06 57.36846 -178.48991 35277 ft 480 kts 63°
2026-05-05 12:06 57.39507 -178.37668 35264 ft 479 kts 63°
2026-05-05 12:07 57.42156 -178.26335 35273 ft 478 kts 63°
2026-05-05 12:07 57.44790 -178.15009 35272 ft 478 kts 63°
2026-05-05 12:08 57.47410 -178.03680 35272 ft 477 kts 63°
2026-05-05 12:08 57.50019 -177.92340 35273 ft 477 kts 63°
2026-05-05 12:09 57.52613 -177.81004 35276 ft 476 kts 63°
2026-05-05 12:09 57.55197 -177.69656 35275 ft 476 kts 63°
2026-05-05 12:10 57.57766 -177.58310 35275 ft 475 kts 63°
2026-05-05 12:10 57.60324 -177.46949 35274 ft 475 kts 63°
2026-05-05 12:11 57.62870 -177.35583 35274 ft 475 kts 63°
2026-05-05 12:11 57.65400 -177.24222 35273 ft 474 kts 63°
2026-05-05 12:12 57.67921 -177.12844 35271 ft 474 kts 63°
2026-05-05 12:12 57.70432 -177.01452 35266 ft 473 kts 63°
2026-05-05 12:13 57.72927 -176.90068 35267 ft 473 kts 63°
2026-05-05 12:13 57.75396 -176.78741 35270 ft 473 kts 64°
2026-05-05 12:14 57.77869 -176.67331 35267 ft 472 kts 64°
2026-05-05 12:14 57.80329 -176.55921 35263 ft 472 kts 64°
2026-05-05 12:15 57.82779 -176.44490 35265 ft 472 kts 64°
2026-05-05 12:15 57.85218 -176.33054 35269 ft 472 kts 64°
2026-05-05 12:16 57.87642 -176.21618 35262 ft 471 kts 64°
2026-05-05 12:16 57.90055 -176.10175 35261 ft 471 kts 64°
2026-05-05 12:17 57.92457 -175.98718 35261 ft 470 kts 64°
2026-05-05 12:17 57.94846 -175.87255 35257 ft 470 kts 64°
2026-05-05 12:18 57.97222 -175.75793 35254 ft 470 kts 64°
2026-05-05 12:18 57.99590 -175.64308 35251 ft 470 kts 64°
2026-05-05 12:19 58.01947 -175.52806 35257 ft 470 kts 64°
2026-05-05 12:19 58.04291 -175.41302 35248 ft 470 kts 64°
2026-05-05 12:20 58.06625 -175.29783 35245 ft 469 kts 64°
2026-05-05 12:20 58.08946 -175.18263 35239 ft 469 kts 65°
2026-05-05 12:21 58.11257 -175.06721 35244 ft 469 kts 65°
2026-05-05 12:21 58.13556 -174.95177 35244 ft 469 kts 65°
2026-05-05 12:22 58.15830 -174.83688 35242 ft 469 kts 65°
2026-05-05 12:22 58.18110 -174.72106 35237 ft 469 kts 65°
2026-05-05 12:23 58.20392 -174.60440 35232 ft 469 kts 65°
2026-05-05 12:23 58.22637 -174.48898 35232 ft 469 kts 65°
2026-05-05 12:24 58.24887 -174.37263 35231 ft 469 kts 65°
2026-05-05 12:24 58.27124 -174.25624 35230 ft 469 kts 65°
2026-05-05 12:25 58.29353 -174.13956 35228 ft 470 kts 65°
2026-05-05 12:25 58.31570 -174.02277 35227 ft 470 kts 66°
2026-05-05 12:26 58.33779 -173.90571 35224 ft 470 kts 66°
2026-05-05 12:26 58.35978 -173.78851 35221 ft 470 kts 66°
2026-05-05 12:27 58.38167 -173.67111 35222 ft 470 kts 66°
2026-05-05 12:27 58.40343 -173.55368 35218 ft 470 kts 66°
2026-05-05 12:28 58.42509 -173.43607 35215 ft 470 kts 66°
2026-05-05 12:28 58.44667 -173.31816 35216 ft 470 kts 66°
2026-05-05 12:29 58.46798 -173.20097 35213 ft 470 kts 66°
2026-05-05 12:29 58.48947 -173.08205 35212 ft 471 kts 66°
2026-05-05 12:30 58.51059 -172.96443 35209 ft 471 kts 66°
2026-05-05 12:30 58.53177 -172.84579 35213 ft 471 kts 66°
2026-05-05 12:31 58.55282 -172.72707 35203 ft 471 kts 67°
2026-05-05 12:31 58.57380 -172.60799 35200 ft 472 kts 67°
2026-05-05 12:32 58.59467 -172.48877 35195 ft 472 kts 67°
2026-05-05 12:32 58.61545 -172.36928 35199 ft 472 kts 67°
2026-05-05 12:33 58.63616 -172.24942 35195 ft 473 kts 67°
2026-05-05 12:33 58.65673 -172.12957 35191 ft 473 kts 67°
2026-05-05 12:34 58.67724 -172.00929 35187 ft 473 kts 68°
2026-05-05 12:34 58.69764 -171.88886 35190 ft 474 kts 68°
2026-05-05 12:35 58.71791 -171.76839 35181 ft 474 kts 68°
2026-05-05 12:35 58.73813 -171.64741 35179 ft 474 kts 68°
2026-05-05 12:36 58.75823 -171.52635 35172 ft 475 kts 68°
2026-05-05 12:36 58.77824 -171.40498 35174 ft 475 kts 68°
2026-05-05 12:37 58.79480 -171.30389 35175 ft 475 kts 68°
2026-05-05 12:37 58.81461 -171.18220 35170 ft 476 kts 68°
2026-05-05 12:38 58.83434 -171.06016 35168 ft 476 kts 68°
2026-05-05 12:38 58.85397 -170.93793 35160 ft 477 kts 68°
2026-05-05 12:39 58.87350 -170.81543 35151 ft 477 kts 69°
2026-05-05 12:39 58.89293 -170.69267 35152 ft 478 kts 69°
2026-05-05 12:40 58.91226 -170.56971 35150 ft 478 kts 69°
2026-05-05 12:40 58.93149 -170.44647 35147 ft 479 kts 69°
2026-05-05 12:41 58.95063 -170.32288 35147 ft 479 kts 69°
2026-05-05 12:41 58.96970 -170.19893 35143 ft 480 kts 69°
2026-05-05 12:42 58.98855 -170.07559 35143 ft 481 kts 69°
2026-05-05 12:42 59.01098 -169.95426 35136 ft 475 kts 59°
2026-05-05 12:43 59.04087 -169.84015 35142 ft 474 kts 58°
2026-05-05 12:43 59.07113 -169.72620 35137 ft 475 kts 58°
2026-05-05 12:44 59.10111 -169.61159 35135 ft 476 kts 59°
2026-05-05 12:44 59.13083 -169.49637 35129 ft 476 kts 59°
2026-05-05 12:45 59.16044 -169.38071 35128 ft 477 kts 59°
2026-05-05 12:45 59.18993 -169.26487 35122 ft 477 kts 59°
2026-05-05 12:46 59.21936 -169.14875 35120 ft 478 kts 59°
2026-05-05 12:46 59.24876 -169.03219 35117 ft 478 kts 59°
2026-05-05 12:47 59.27805 -168.91542 35113 ft 479 kts 59°
2026-05-05 12:47 59.30707 -168.79910 35111 ft 479 kts 59°
2026-05-05 12:48 59.33622 -168.68168 35109 ft 479 kts 59°
2026-05-05 12:48 59.36526 -168.56402 35109 ft 480 kts 60°
2026-05-05 12:49 59.39423 -168.44606 35104 ft 480 kts 60°
2026-05-05 12:49 59.42312 -168.32777 35102 ft 481 kts 60°
2026-05-05 12:50 59.45189 -168.20933 35098 ft 481 kts 60°
2026-05-05 12:50 59.48064 -168.09032 35092 ft 481 kts 60°
2026-05-05 12:51 59.50930 -167.97107 35090 ft 482 kts 60°
2026-05-05 12:51 59.53787 -167.85149 35082 ft 482 kts 60°
2026-05-05 12:52 59.56634 -167.73168 35072 ft 483 kts 60°
2026-05-05 12:52 59.59451 -167.61250 35074 ft 483 kts 60°
2026-05-05 12:53 59.62280 -167.49213 35077 ft 483 kts 61°
2026-05-05 12:53 59.65099 -167.37148 35075 ft 484 kts 61°
2026-05-05 12:54 59.69315 -167.18982 35065 ft 484 kts 61°
2026-05-05 12:55 59.72116 -167.06829 35062 ft 485 kts 61°
2026-05-05 12:55 59.74903 -166.94665 35060 ft 485 kts 62°
2026-05-05 12:56 59.77684 -166.82456 35054 ft 485 kts 62°
2026-05-05 12:56 59.80454 -166.70229 35051 ft 486 kts 62°
2026-05-05 12:57 59.83214 -166.57971 35048 ft 486 kts 62°
2026-05-05 12:57 59.85966 -166.45680 35043 ft 486 kts 62°
2026-05-05 12:58 59.88709 -166.33359 35035 ft 487 kts 62°
2026-05-05 12:58 59.91441 -166.21018 35033 ft 487 kts 63°
2026-05-05 12:59 59.94162 -166.08650 35031 ft 487 kts 63°
2026-05-05 12:59 59.96874 -165.96249 35024 ft 488 kts 63°
2026-05-05 13:00 60.00923 -165.77598 35018 ft 488 kts 63°
2026-05-05 13:01 60.06268 -165.52718 35002 ft 489 kts 63°
2026-05-05 13:01 60.08935 -165.40190 34997 ft 489 kts 64°
2026-05-05 13:02 60.11590 -165.27644 35004 ft 489 kts 64°
2026-05-05 13:02 60.14235 -165.15071 35003 ft 489 kts 64°
2026-05-05 13:03 60.16870 -165.02466 34988 ft 490 kts 64°
2026-05-05 13:03 60.19499 -164.89814 34982 ft 491 kts 64°
2026-05-05 13:04 60.22118 -164.77131 34977 ft 491 kts 64°
2026-05-05 13:04 60.24728 -164.64412 34979 ft 492 kts 64°
2026-05-05 13:05 60.27327 -164.51665 34978 ft 492 kts 65°
2026-05-05 13:05 60.29916 -164.38887 34972 ft 493 kts 65°
2026-05-05 13:06 60.32482 -164.26143 34971 ft 494 kts 65°
2026-05-05 13:06 60.35054 -164.13287 34959 ft 494 kts 65°
2026-05-05 13:07 60.37616 -164.00400 34958 ft 495 kts 65°
2026-05-05 13:07 60.40168 -163.87477 34957 ft 495 kts 65°
2026-05-05 13:08 60.42710 -163.74526 34950 ft 495 kts 66°
2026-05-05 13:08 60.45242 -163.61539 34946 ft 496 kts 66°
2026-05-05 13:09 60.47763 -163.48521 34939 ft 496 kts 66°
2026-05-05 13:09 60.50271 -163.35479 34935 ft 497 kts 66°
2026-05-05 13:10 60.52773 -163.22397 34931 ft 497 kts 66°
2026-05-05 13:10 60.55264 -163.09279 34925 ft 498 kts 66°
2026-05-05 13:11 60.57742 -162.96131 34916 ft 498 kts 67°
2026-05-05 13:11 60.60210 -162.82955 34912 ft 498 kts 67°
2026-05-05 13:12 60.62665 -162.69766 34903 ft 498 kts 67°
2026-05-05 13:12 60.65109 -162.56538 34896 ft 499 kts 67°
2026-05-05 13:13 60.67538 -162.43302 34886 ft 499 kts 68°
2026-05-05 13:13 60.69954 -162.30046 34871 ft 499 kts 68°
2026-05-05 13:14 60.72360 -162.16755 34865 ft 499 kts 68°
2026-05-05 13:14 60.74737 -162.03528 34860 ft 499 kts 68°
2026-05-05 13:15 60.77116 -161.90209 34861 ft 499 kts 69°
2026-05-05 13:15 60.79508 -161.76875 34863 ft 499 kts 68°
2026-05-05 13:16 60.82045 -161.63664 34864 ft 498 kts 67°
2026-05-05 13:16 60.84613 -161.50460 34843 ft 498 kts 67°
2026-05-05 13:17 60.87150 -161.37224 34846 ft 498 kts 68°
2026-05-05 13:17 60.89658 -161.23953 34841 ft 498 kts 68°
2026-05-05 13:18 60.92148 -161.10648 34837 ft 498 kts 68°
2026-05-05 13:18 60.94620 -160.97354 34832 ft 498 kts 68°
2026-05-05 13:19 60.97080 -160.84037 34820 ft 498 kts 69°
2026-05-05 13:19 60.99525 -160.70716 34821 ft 497 kts 69°
2026-05-05 13:20 61.01955 -160.57384 34820 ft 497 kts 69°
2026-05-05 13:20 61.04369 -160.44041 34814 ft 496 kts 69°
2026-05-05 13:21 61.06771 -160.30680 34815 ft 496 kts 69°
2026-05-05 13:21 61.09154 -160.17326 34814 ft 496 kts 69°
2026-05-05 13:22 61.11524 -160.03950 34809 ft 496 kts 69°
2026-05-05 13:22 61.13884 -159.90540 34807 ft 496 kts 70°
2026-05-05 13:23 61.16231 -159.77107 34802 ft 496 kts 70°
2026-05-05 13:23 61.18551 -159.63731 34793 ft 497 kts 70°
2026-05-05 13:24 61.20876 -159.50234 34788 ft 497 kts 70°
2026-05-05 13:24 61.23187 -159.36714 34782 ft 498 kts 70°
2026-05-05 13:25 61.25490 -159.23143 34781 ft 498 kts 70°
2026-05-05 13:25 61.27780 -159.09556 34776 ft 498 kts 70°
2026-05-05 13:26 61.30056 -158.95943 34775 ft 498 kts 70°
2026-05-05 13:26 61.31953 -158.84522 34769 ft 498 kts 70°
2026-05-05 13:27 61.34189 -158.70966 34765 ft 498 kts 71°
2026-05-05 13:27 61.36426 -158.57305 34763 ft 498 kts 71°
2026-05-05 13:28 61.38650 -158.43615 34759 ft 498 kts 71°
2026-05-05 13:28 61.40854 -158.29944 34755 ft 497 kts 71°
2026-05-05 13:29 61.43045 -158.16252 34748 ft 496 kts 71°
2026-05-05 13:29 61.45219 -158.02564 34747 ft 496 kts 71°
2026-05-05 13:30 61.47379 -157.88858 34745 ft 496 kts 71°
2026-05-05 13:30 61.49524 -157.75134 34739 ft 496 kts 72°
2026-05-05 13:31 61.51658 -157.61377 34737 ft 496 kts 72°
2026-05-05 13:31 61.53777 -157.47613 34737 ft 497 kts 72°
2026-05-05 13:32 61.55887 -157.33793 34735 ft 497 kts 72°
2026-05-05 13:32 61.57981 -157.19968 34736 ft 497 kts 72°
2026-05-05 13:33 61.60062 -157.06122 34738 ft 497 kts 72°
2026-05-05 13:33 61.62112 -156.92367 34736 ft 496 kts 73°
2026-05-05 13:34 61.64160 -156.78518 34732 ft 496 kts 73°
2026-05-05 13:34 61.66189 -156.64682 34718 ft 495 kts 73°
2026-05-05 13:35 61.68203 -156.50831 34712 ft 494 kts 73°
2026-05-05 13:35 61.70203 -156.36971 34704 ft 494 kts 73°
2026-05-05 13:36 61.72187 -156.23103 34696 ft 494 kts 73°
2026-05-05 13:36 61.74155 -156.09230 34697 ft 494 kts 74°
2026-05-05 13:37 61.76109 -155.95337 34695 ft 494 kts 74°
2026-05-05 13:37 61.78048 -155.81435 34693 ft 494 kts 74°
2026-05-05 13:38 61.79976 -155.67497 34686 ft 494 kts 75°
2026-05-05 13:38 61.81890 -155.53533 34690 ft 494 kts 75°
2026-05-05 13:39 61.83790 -155.39554 34685 ft 495 kts 75°
2026-05-05 13:39 61.85678 -155.25543 34689 ft 495 kts 75°
2026-05-05 13:40 61.87551 -155.11516 34688 ft 495 kts 75°
2026-05-05 13:40 61.89410 -154.97481 34683 ft 495 kts 75°
2026-05-05 13:41 61.91254 -154.83424 34682 ft 494 kts 76°
2026-05-05 13:41 61.93081 -154.69369 34678 ft 494 kts 76°
2026-05-05 13:42 61.94894 -154.55305 34677 ft 493 kts 76°
2026-05-05 13:42 61.96690 -154.41234 34674 ft 493 kts 76°
2026-05-05 13:43 61.98459 -154.27258 34672 ft 493 kts 76°
2026-05-05 13:43 62.00224 -154.13174 34669 ft 492 kts 76°
2026-05-05 13:44 62.01974 -153.99080 34679 ft 492 kts 77°
2026-05-05 13:44 62.03707 -153.84998 34676 ft 492 kts 77°
2026-05-05 13:45 62.05425 -153.70895 34683 ft 491 kts 77°
2026-05-05 13:45 62.07127 -153.56798 34687 ft 491 kts 77°
2026-05-05 13:46 62.08815 -153.42687 34687 ft 490 kts 77°
2026-05-05 13:46 62.10485 -153.28586 34687 ft 490 kts 77°
2026-05-05 13:47 62.12141 -153.14462 34695 ft 490 kts 77°
2026-05-05 13:47 62.13781 -153.00334 34684 ft 490 kts 78°
2026-05-05 13:48 62.15405 -152.86208 34691 ft 489 kts 78°
2026-05-05 13:48 62.17016 -152.72062 34692 ft 490 kts 78°
2026-05-05 13:49 62.18613 -152.57888 34695 ft 490 kts 78°
2026-05-05 13:49 62.20196 -152.43705 34696 ft 490 kts 78°
2026-05-05 13:50 62.21754 -152.29591 34699 ft 490 kts 78°
2026-05-05 13:50 62.23308 -152.15368 34702 ft 490 kts 78°
2026-05-05 13:51 62.24849 -152.01124 34700 ft 490 kts 79°
2026-05-05 13:51 62.26376 -151.86864 34702 ft 490 kts 79°
2026-05-05 13:52 62.27886 -151.72597 34703 ft 490 kts 79°
2026-05-05 13:52 62.29385 -151.58281 34706 ft 491 kts 79°
2026-05-05 13:53 62.30871 -151.43938 34700 ft 492 kts 79°
2026-05-05 13:53 62.32345 -151.29564 34703 ft 493 kts 79°
2026-05-05 13:54 62.33806 -151.15146 34702 ft 493 kts 79°
2026-05-05 13:54 62.35251 -151.00726 34701 ft 493 kts 79°
2026-05-05 13:55 62.36685 -150.86254 34699 ft 494 kts 80°
2026-05-05 13:55 62.38105 -150.71765 34697 ft 494 kts 80°
2026-05-05 13:56 62.39509 -150.57259 34697 ft 495 kts 80°
2026-05-05 13:56 62.40891 -150.42820 34695 ft 495 kts 80°
2026-05-05 13:57 62.42267 -150.28270 34691 ft 495 kts 81°
2026-05-05 13:57 62.43630 -150.13694 34695 ft 495 kts 81°
2026-05-05 13:58 62.44978 -149.99091 34697 ft 496 kts 81°
2026-05-05 13:58 62.46310 -149.84479 34695 ft 496 kts 81°
2026-05-05 13:59 62.48283 -149.62505 34692 ft 497 kts 82°
2026-05-05 14:00 62.50006 -149.42970 34700 ft 497 kts 82°
2026-05-05 14:00 62.51496 -149.25808 34699 ft 497 kts 82°
2026-05-05 14:01 62.52756 -149.11089 34718 ft 497 kts 82°
2026-05-05 14:01 62.53999 -148.96360 34726 ft 498 kts 83°
2026-05-05 14:02 62.55229 -148.81590 34734 ft 498 kts 83°
2026-05-05 14:02 62.56445 -148.66801 34731 ft 498 kts 83°
2026-05-05 14:03 62.57645 -148.52012 34734 ft 498 kts 83°
2026-05-05 14:03 62.58828 -148.37209 34736 ft 498 kts 83°
2026-05-05 14:04 62.59994 -148.22416 34743 ft 497 kts 84°
2026-05-05 14:04 62.61142 -148.07646 34755 ft 496 kts 84°
2026-05-05 14:05 62.62274 -147.92866 34770 ft 496 kts 84°
2026-05-05 14:05 62.63391 -147.78067 34761 ft 496 kts 84°
2026-05-05 14:06 62.64494 -147.63245 34770 ft 497 kts 84°
2026-05-05 14:06 62.65581 -147.48393 34765 ft 498 kts 84°
2026-05-05 14:07 62.66656 -147.33495 34769 ft 499 kts 85°
2026-05-05 14:07 62.67717 -147.18565 34766 ft 500 kts 85°
2026-05-05 14:08 62.68766 -147.03577 34763 ft 501 kts 85°
2026-05-05 14:08 62.69800 -146.88550 34760 ft 502 kts 85°
2026-05-05 14:09 62.70813 -146.73583 34756 ft 503 kts 85°
2026-05-05 14:09 62.71819 -146.58475 34755 ft 503 kts 85°
2026-05-05 14:10 62.72807 -146.43380 34757 ft 503 kts 86°
2026-05-05 14:10 62.73781 -146.28255 34767 ft 503 kts 86°
2026-05-05 14:11 62.74739 -146.13116 34767 ft 503 kts 86°
2026-05-05 14:11 62.75677 -145.98010 34759 ft 503 kts 86°
2026-05-05 14:12 62.76601 -145.82868 34760 ft 503 kts 87°
2026-05-05 14:12 62.77507 -145.67754 34747 ft 502 kts 87°
2026-05-05 14:13 62.78246 -145.55196 34745 ft 501 kts 88°
2026-05-05 14:13 62.79119 -145.40109 34733 ft 500 kts 88°
2026-05-05 14:14 62.79974 -145.25046 34742 ft 499 kts 88°
2026-05-05 14:14 62.80812 -145.09996 34733 ft 499 kts 88°
2026-05-05 14:15 62.81633 -144.94952 34730 ft 498 kts 89°
2026-05-05 14:15 62.82436 -144.79922 34729 ft 497 kts 89°
2026-05-05 14:16 62.83222 -144.64916 34723 ft 497 kts 89°
2026-05-05 14:16 62.83992 -144.49902 34722 ft 496 kts 89°
2026-05-05 14:17 62.84745 -144.34880 34717 ft 496 kts 90°
2026-05-05 14:17 62.85482 -144.19863 34721 ft 496 kts 90°
2026-05-05 14:18 62.86206 -144.04836 34712 ft 496 kts 90°
2026-05-05 14:18 62.86910 -143.89789 34705 ft 496 kts 90°
2026-05-05 14:19 62.87599 -143.74745 34708 ft 496 kts 91°
2026-05-05 14:19 62.88273 -143.59715 34705 ft 495 kts 91°
2026-05-05 14:20 62.88931 -143.44698 34695 ft 495 kts 91°
2026-05-05 14:20 62.89564 -143.29762 34696 ft 495 kts 91°
2026-05-05 14:21 62.90187 -143.14727 34695 ft 495 kts 91°
2026-05-05 14:21 62.90795 -142.99669 34670 ft 496 kts 91°
2026-05-05 14:22 62.91389 -142.84601 34663 ft 496 kts 91°
2026-05-05 14:22 62.91970 -142.69522 34660 ft 496 kts 92°
2026-05-05 14:23 62.92528 -142.54433 34636 ft 496 kts 92°
2026-05-05 14:23 62.93072 -142.39348 34633 ft 496 kts 92°
2026-05-05 14:24 62.93601 -142.24257 34620 ft 495 kts 92°
2026-05-05 14:24 62.94114 -142.09171 34614 ft 495 kts 92°
2026-05-05 14:25 62.94612 -141.94088 34616 ft 495 kts 92°
2026-05-05 14:25 62.94973 -141.79005 34614 ft 493 kts 95°
2026-05-05 14:26 62.95149 -141.63971 34617 ft 492 kts 95°
2026-05-05 14:26 62.95326 -141.48940 34628 ft 493 kts 95°
2026-05-05 14:27 62.95519 -141.33867 34630 ft 493 kts 95°
2026-05-05 14:27 62.95702 -141.18799 34640 ft 493 kts 95°
2026-05-05 14:28 62.95841 -141.03729 34636 ft 492 kts 98°
2026-05-05 14:28 62.95123 -140.88979 34637 ft 482 kts 107°
2026-05-05 14:29 62.93899 -140.74525 34637 ft 482 kts 108°
2026-05-05 14:29 62.92665 -140.60040 34635 ft 483 kts 108°
2026-05-05 14:30 62.91444 -140.45534 34640 ft 484 kts 108°
2026-05-05 14:30 62.90223 -140.31017 34632 ft 485 kts 108°
2026-05-05 14:31 62.88988 -140.16479 34622 ft 485 kts 108°
2026-05-05 14:31 62.87746 -140.02060 34619 ft 485 kts 108°
2026-05-05 14:32 62.86479 -139.87553 34615 ft 485 kts 108°
2026-05-05 14:32 62.85197 -139.73066 34620 ft 484 kts 108°
2026-05-05 14:33 62.83900 -139.58582 34609 ft 484 kts 108°
2026-05-05 14:33 62.82590 -139.44138 34629 ft 483 kts 109°
2026-05-05 14:34 62.81264 -139.29712 34593 ft 485 kts 109°
2026-05-05 14:34 62.79921 -139.15256 34611 ft 486 kts 109°
2026-05-05 14:35 62.78562 -139.00792 34612 ft 486 kts 109°
2026-05-05 14:35 62.77185 -138.86326 34608 ft 487 kts 109°
2026-05-05 14:36 62.75791 -138.71852 34599 ft 487 kts 109°
2026-05-05 14:36 62.74383 -138.57382 34604 ft 488 kts 109°
2026-05-05 14:37 62.72955 -138.42879 34596 ft 489 kts 109°
2026-05-05 14:37 62.71510 -138.28374 34603 ft 490 kts 109°
2026-05-05 14:38 62.70048 -138.13856 34590 ft 491 kts 109°
2026-05-05 14:38 62.68578 -137.99431 34608 ft 492 kts 110°
2026-05-05 14:39 62.67078 -137.84880 34588 ft 492 kts 110°
2026-05-05 14:39 62.65567 -137.70364 34604 ft 491 kts 110°
2026-05-05 14:40 62.64044 -137.55891 34611 ft 491 kts 110°
2026-05-05 14:40 62.62502 -137.41408 34614 ft 492 kts 110°
2026-05-05 14:41 62.60944 -137.26934 34627 ft 493 kts 110°
2026-05-05 14:41 62.59369 -137.12449 34632 ft 494 kts 110°
2026-05-05 14:42 62.57776 -136.97943 34646 ft 495 kts 110°
2026-05-05 14:42 62.56164 -136.83425 34651 ft 495 kts 110°
2026-05-05 14:43 62.54535 -136.68902 34660 ft 496 kts 110°
2026-05-05 14:43 62.52886 -136.54361 34665 ft 497 kts 110°
2026-05-05 14:44 62.51221 -136.39821 34670 ft 498 kts 111°
2026-05-05 14:44 62.49542 -136.25290 34676 ft 498 kts 111°
2026-05-05 14:45 62.47844 -136.10767 34687 ft 498 kts 111°
2026-05-05 14:45 62.46143 -135.96350 34690 ft 498 kts 111°
2026-05-05 14:46 62.44415 -135.81854 34700 ft 499 kts 111°
2026-05-05 14:46 62.42667 -135.67332 34703 ft 499 kts 111°
2026-05-05 14:47 62.40905 -135.52834 34705 ft 500 kts 111°
2026-05-05 14:47 62.39128 -135.38362 34717 ft 500 kts 111°
2026-05-05 14:48 62.37331 -135.23858 34716 ft 501 kts 111°
2026-05-05 14:48 62.35515 -135.09348 34734 ft 502 kts 111°
2026-05-05 14:49 62.33682 -134.94833 34719 ft 502 kts 111°
2026-05-05 14:49 62.31834 -134.80337 34733 ft 502 kts 112°
2026-05-05 14:50 62.29976 -134.65886 34741 ft 501 kts 112°
2026-05-05 14:50 62.28109 -134.51493 34760 ft 500 kts 112°
2026-05-05 14:51 62.26221 -134.37119 34780 ft 501 kts 112°
2026-05-05 14:51 62.24309 -134.22675 34776 ft 503 kts 112°
2026-05-05 14:52 62.22386 -134.08262 34780 ft 503 kts 112°
2026-05-05 14:52 62.20442 -133.93832 34783 ft 504 kts 112°
2026-05-05 14:53 62.18487 -133.79445 34790 ft 503 kts 112°
2026-05-05 14:53 62.16527 -133.65148 34796 ft 504 kts 113°
2026-05-05 14:54 62.14525 -133.50682 34795 ft 504 kts 113°
2026-05-05 14:54 62.12519 -133.36309 34790 ft 505 kts 113°
2026-05-05 14:55 62.10497 -133.21945 34790 ft 505 kts 113°
2026-05-05 14:55 62.08474 -133.07697 34806 ft 505 kts 113°
2026-05-05 14:56 62.06420 -132.93358 34833 ft 506 kts 114°
2026-05-05 14:56 62.04348 -132.79017 34847 ft 507 kts 114°
2026-05-05 14:57 62.02261 -132.64684 34865 ft 507 kts 114°
2026-05-05 14:57 62.00153 -132.50347 34878 ft 508 kts 114°
2026-05-05 14:58 61.98023 -132.35983 34876 ft 509 kts 114°
2026-05-05 14:58 61.95877 -132.21614 34886 ft 510 kts 114°
2026-05-05 14:59 61.93710 -132.07232 34883 ft 512 kts 114°
2026-05-05 14:59 61.91524 -131.92847 34867 ft 512 kts 115°
2026-05-05 15:00 61.89694 -131.80885 34878 ft 512 kts 115°
2026-05-05 15:00 61.87478 -131.66519 34879 ft 513 kts 115°
2026-05-05 15:01 61.85247 -131.52171 34869 ft 513 kts 115°
2026-05-05 15:01 61.82994 -131.37810 34866 ft 514 kts 115°
2026-05-05 15:02 61.80729 -131.23482 34863 ft 514 kts 115°
2026-05-05 15:02 61.78444 -131.09141 34860 ft 515 kts 115°
2026-05-05 15:03 61.76142 -130.94808 34877 ft 516 kts 115°
2026-05-05 15:03 61.73819 -130.80462 34878 ft 517 kts 115°
2026-05-05 15:04 61.71479 -130.66125 34874 ft 518 kts 115°
2026-05-05 15:04 61.69111 -130.51728 34894 ft 520 kts 115°
2026-05-05 15:05 61.65543 -130.30252 34909 ft 521 kts 115°
2026-05-05 15:06 61.63131 -130.15871 34923 ft 522 kts 115°
2026-05-05 15:06 61.60697 -130.01470 34938 ft 523 kts 115°
2026-05-05 15:07 61.58232 -129.86999 34963 ft 523 kts 115°
2026-05-05 15:07 61.55767 -129.72646 34955 ft 523 kts 115°
2026-05-05 15:08 61.53291 -129.58344 35343 ft 525 kts 115°
2026-05-05 15:08 61.52040 -129.51150 35726 ft 523 kts 115°
2026-05-05 15:08 61.50795 -129.44017 36098 ft 521 kts 115°
2026-05-05 15:08 61.49550 -129.36913 36453 ft 520 kts 115°
2026-05-05 15:09 61.48296 -129.29783 36800 ft 519 kts 114°
2026-05-05 15:09 61.47037 -129.22669 36935 ft 524 kts 115°
2026-05-05 15:09 61.45766 -129.15509 36966 ft 526 kts 115°
2026-05-05 15:10 61.43221 -129.01230 36965 ft 521 kts 115°
2026-05-05 15:10 61.40689 -128.87128 36984 ft 517 kts 115°
2026-05-05 15:11 61.38147 -128.73085 36991 ft 517 kts 115°
2026-05-05 15:11 61.35591 -128.59073 37004 ft 517 kts 115°
2026-05-05 15:12 61.33016 -128.45058 37015 ft 519 kts 115°
2026-05-05 15:12 61.30420 -128.31033 37015 ft 520 kts 115°
2026-05-05 15:13 61.27806 -128.17006 37044 ft 521 kts 115°
2026-05-05 15:13 61.25187 -128.03048 37038 ft 522 kts 115°
2026-05-05 15:14 61.22534 -127.89011 37030 ft 523 kts 115°
2026-05-05 15:14 61.19861 -127.74963 37036 ft 524 kts 115°
2026-05-05 15:15 61.17284 -127.61522 37035 ft 524 kts 115°
2026-05-05 15:15 61.14576 -127.47493 37023 ft 525 kts 115°
2026-05-05 15:16 61.11851 -127.33479 37027 ft 525 kts 115°
2026-05-05 15:16 61.09113 -127.19492 37023 ft 524 kts 115°
2026-05-05 15:17 61.06364 -127.05549 37024 ft 524 kts 115°
2026-05-05 15:17 61.03597 -126.91610 37021 ft 524 kts 115°
2026-05-05 15:18 61.00820 -126.77721 37010 ft 523 kts 115°
2026-05-05 15:18 60.98034 -126.63876 37021 ft 523 kts 115°
2026-05-05 15:19 60.95236 -126.50069 37022 ft 523 kts 115°
2026-05-05 15:19 60.92411 -126.36231 37022 ft 524 kts 115°
2026-05-05 15:20 60.89577 -126.22434 37014 ft 524 kts 115°
2026-05-05 15:20 60.86726 -126.08645 37026 ft 524 kts 115°
2026-05-05 15:21 60.83862 -125.94889 37023 ft 525 kts 115°
2026-05-05 15:21 60.80981 -125.81148 37019 ft 525 kts 115°
2026-05-05 15:22 60.78091 -125.67450 37024 ft 525 kts 115°
2026-05-05 15:22 60.75181 -125.53752 37023 ft 524 kts 115°
2026-05-05 15:23 60.72280 -125.40183 37032 ft 525 kts 115°
2026-05-05 15:23 60.69344 -125.26540 37023 ft 525 kts 115°
2026-05-05 15:24 60.66394 -125.12925 37029 ft 525 kts 115°
2026-05-05 15:24 60.63431 -124.99335 37046 ft 525 kts 115°
2026-05-05 15:25 60.60462 -124.85802 37047 ft 525 kts 115°
2026-05-05 15:25 60.57463 -124.72224 37050 ft 525 kts 115°
2026-05-05 15:26 60.54459 -124.58710 37068 ft 525 kts 115°
2026-05-05 15:26 60.51437 -124.45202 37063 ft 525 kts 115°
2026-05-05 15:27 60.48407 -124.31749 37066 ft 525 kts 115°
2026-05-05 15:27 60.45362 -124.18306 37075 ft 524 kts 115°
2026-05-05 15:28 60.42303 -124.04892 37073 ft 525 kts 115°
2026-05-05 15:28 60.39228 -123.91488 37094 ft 526 kts 115°
2026-05-05 15:29 60.36135 -123.78090 37083 ft 527 kts 115°
2026-05-05 15:29 60.33019 -123.64679 37090 ft 528 kts 115°
2026-05-05 15:30 60.29889 -123.51291 37087 ft 528 kts 115°
2026-05-05 15:30 60.26740 -123.37906 37088 ft 528 kts 115°
2026-05-05 15:31 60.23580 -123.24555 37088 ft 529 kts 115°
2026-05-05 15:31 60.20418 -123.11278 37091 ft 529 kts 115°
2026-05-05 15:32 60.17203 -122.97861 37100 ft 530 kts 115°
2026-05-05 15:32 60.13994 -122.84551 37113 ft 530 kts 116°
2026-05-05 15:33 60.10783 -122.71314 37115 ft 530 kts 116°
2026-05-05 15:33 60.07545 -122.58046 37115 ft 530 kts 116°
2026-05-05 15:34 60.04289 -122.44784 37123 ft 530 kts 115°
2026-05-05 15:34 60.01022 -122.31559 37124 ft 531 kts 115°
2026-05-05 15:35 59.97737 -122.18342 37126 ft 531 kts 115°
2026-05-05 15:35 59.94433 -122.05127 37127 ft 532 kts 115°
2026-05-05 15:36 59.91119 -121.91950 37135 ft 532 kts 115°
2026-05-05 15:36 59.87806 -121.78851 37138 ft 533 kts 115°
2026-05-05 15:37 59.84456 -121.65689 37140 ft 533 kts 116°
2026-05-05 15:37 59.81090 -121.52545 37143 ft 534 kts 116°
2026-05-05 15:38 59.77709 -121.39416 37146 ft 534 kts 116°
2026-05-05 15:38 59.74309 -121.26290 37148 ft 535 kts 116°
2026-05-05 15:39 59.70894 -121.13187 37149 ft 535 kts 116°
2026-05-05 15:39 59.67469 -121.00119 37156 ft 535 kts 115°
2026-05-05 15:40 59.64024 -120.87051 37158 ft 536 kts 115°
2026-05-05 15:40 59.60565 -120.74006 37161 ft 536 kts 115°
2026-05-05 15:41 59.57093 -120.60989 37164 ft 536 kts 115°
2026-05-05 15:41 59.53607 -120.47996 37163 ft 536 kts 115°
2026-05-05 15:42 59.50112 -120.35042 37169 ft 536 kts 115°
2026-05-05 15:42 59.46607 -120.22124 37172 ft 536 kts 115°
2026-05-05 15:43 59.43118 -120.09342 37178 ft 536 kts 115°
2026-05-05 15:43 59.39569 -119.96409 37168 ft 536 kts 115°
2026-05-05 15:44 59.36018 -119.83545 37173 ft 536 kts 115°
2026-05-05 15:44 59.32455 -119.70708 37192 ft 536 kts 115°
2026-05-05 15:45 59.28880 -119.57902 37195 ft 536 kts 115°
2026-05-05 15:45 59.25292 -119.45119 37197 ft 536 kts 115°
2026-05-05 15:46 59.21689 -119.32356 37199 ft 537 kts 115°
2026-05-05 15:46 59.18069 -119.19605 37208 ft 537 kts 115°
2026-05-05 15:47 59.15053 -119.09033 37215 ft 537 kts 115°
2026-05-05 15:47 59.11412 -118.96336 37219 ft 537 kts 115°
2026-05-05 15:48 59.07759 -118.83667 37221 ft 537 kts 116°
2026-05-05 15:48 59.04083 -118.70989 37225 ft 538 kts 116°
2026-05-05 15:49 59.00400 -118.58359 37226 ft 538 kts 116°
2026-05-05 15:49 58.96706 -118.45755 37228 ft 538 kts 116°
2026-05-05 15:50 58.92991 -118.33153 37234 ft 538 kts 116°
2026-05-05 15:50 58.89266 -118.20584 37236 ft 538 kts 116°
2026-05-05 15:51 58.85530 -118.08044 37234 ft 538 kts 116°
2026-05-05 15:51 58.82028 -117.96353 37241 ft 539 kts 116°
2026-05-05 15:52 58.78270 -117.83872 37248 ft 539 kts 116°
2026-05-05 15:52 58.74500 -117.71415 37249 ft 539 kts 116°
2026-05-05 15:53 58.70708 -117.58953 37252 ft 539 kts 116°
2026-05-05 15:53 58.66909 -117.46536 37257 ft 539 kts 116°
2026-05-05 15:54 58.63093 -117.34128 37240 ft 539 kts 116°
2026-05-05 15:54 58.59298 -117.21852 37246 ft 539 kts 116°
2026-05-05 15:55 58.55465 -117.09509 37248 ft 539 kts 116°
2026-05-05 15:55 58.51800 -116.97049 37241 ft 536 kts 113°
2026-05-05 15:56 58.48312 -116.84458 37254 ft 536 kts 112°
2026-05-05 15:56 58.44802 -116.71877 37274 ft 536 kts 113°
2026-05-05 15:57 58.41246 -116.59375 37284 ft 536 kts 113°
2026-05-05 15:57 58.37658 -116.46907 37282 ft 536 kts 113°
2026-05-05 15:58 58.34053 -116.34454 37282 ft 536 kts 113°
2026-05-05 15:58 58.30444 -116.22038 37281 ft 536 kts 114°
2026-05-05 15:59 58.26826 -116.09652 37277 ft 536 kts 114°
2026-05-05 15:59 58.23198 -115.97295 37281 ft 536 kts 114°
2026-05-05 16:00 58.19555 -115.84958 37273 ft 535 kts 114°
2026-05-05 16:00 58.15907 -115.72668 37277 ft 535 kts 114°
2026-05-05 16:01 58.12250 -115.60410 37288 ft 534 kts 114°
2026-05-05 16:01 58.08584 -115.48189 37281 ft 534 kts 114°
2026-05-05 16:02 58.04912 -115.36012 37276 ft 533 kts 114°
2026-05-05 16:02 58.01229 -115.23861 37268 ft 533 kts 114°
2026-05-05 16:03 57.97545 -115.11771 37276 ft 532 kts 114°
2026-05-05 16:03 57.93850 -114.99703 37285 ft 531 kts 114°
2026-05-05 16:04 57.90151 -114.87688 37290 ft 531 kts 114°
2026-05-05 16:04 57.86445 -114.75710 37282 ft 530 kts 114°
2026-05-05 16:05 57.82758 -114.63854 37296 ft 529 kts 114°
2026-05-05 16:05 57.79039 -114.51955 37299 ft 529 kts 114°
2026-05-05 16:06 57.75308 -114.40080 37298 ft 528 kts 114°
2026-05-05 16:06 57.71575 -114.28257 37306 ft 527 kts 114°
2026-05-05 16:07 57.67837 -114.16477 37301 ft 526 kts 114°
2026-05-05 16:07 57.64091 -114.04728 37299 ft 526 kts 114°
2026-05-05 16:08 57.60341 -113.93028 37295 ft 525 kts 114°
2026-05-05 16:08 57.56585 -113.81366 37300 ft 524 kts 115°
2026-05-05 16:09 57.52831 -113.69768 37300 ft 523 kts 115°
2026-05-05 16:09 57.49066 -113.58187 37310 ft 523 kts 115°
2026-05-05 16:10 57.45318 -113.46719 37307 ft 522 kts 115°
2026-05-05 16:10 57.41535 -113.35199 37303 ft 522 kts 115°
2026-05-05 16:11 57.37746 -113.23715 37298 ft 522 kts 115°
2026-05-05 16:12 57.30133 -113.00806 37311 ft 522 kts 115°
2026-05-05 16:13 57.20561 -112.72290 37320 ft 523 kts 115°
2026-05-05 16:13 57.16714 -112.60905 37319 ft 523 kts 115°
2026-05-05 16:14 57.08987 -112.38180 37315 ft 524 kts 116°
2026-05-05 16:15 57.01213 -112.15535 37332 ft 524 kts 116°
2026-05-05 16:16 56.93393 -111.92972 37334 ft 524 kts 116°
2026-05-05 16:17 56.87526 -111.76180 37331 ft 524 kts 116°
2026-05-05 16:18 56.81615 -111.59380 37316 ft 524 kts 116°
2026-05-05 16:19 56.75687 -111.42646 37293 ft 523 kts 116°
2026-05-05 16:19 56.69751 -111.25995 37281 ft 522 kts 117°
2026-05-05 16:20 56.60889 -111.04954 37283 ft 533 kts 131°
2026-05-05 16:22 56.47550 -110.81838 37315 ft 532 kts 131°
2026-05-05 16:23 56.36927 -110.63288 37335 ft 530 kts 131°
2026-05-05 16:23 56.28949 -110.49461 37330 ft 530 kts 131°
2026-05-05 16:24 56.23642 -110.40314 37341 ft 528 kts 131°
2026-05-05 16:25 56.15705 -110.26703 37338 ft 527 kts 131°
2026-05-05 16:25 56.07744 -110.13127 37336 ft 526 kts 132°
2026-05-05 16:26 55.97768 -109.94257 37333 ft 516 kts 118°
2026-05-05 16:27 55.93871 -109.83552 37342 ft 513 kts 117°
2026-05-05 16:27 55.89992 -109.72856 37336 ft 514 kts 118°
2026-05-05 16:28 55.86071 -109.62198 37327 ft 514 kts 118°
2026-05-05 16:28 55.82124 -109.51578 37326 ft 514 kts 118°
2026-05-05 16:29 55.78162 -109.40982 37326 ft 514 kts 118°
2026-05-05 16:29 55.74197 -109.30414 37325 ft 514 kts 119°
2026-05-05 16:30 55.70223 -109.19866 37327 ft 514 kts 119°
2026-05-05 16:30 55.66240 -109.09338 37323 ft 514 kts 119°
2026-05-05 16:31 55.62254 -108.98847 37320 ft 513 kts 119°
2026-05-05 16:31 55.58261 -108.88381 37320 ft 513 kts 120°
2026-05-05 16:32 55.54267 -108.77958 37328 ft 512 kts 120°
2026-05-05 16:32 55.50946 -108.69325 37330 ft 512 kts 120°
2026-05-05 16:33 55.46938 -108.58945 37337 ft 511 kts 120°
2026-05-05 16:33 55.42276 -108.46928 37325 ft 511 kts 120°
2026-05-05 16:34 55.38905 -108.38273 37319 ft 511 kts 120°
2026-05-05 16:34 55.34878 -108.27976 37307 ft 511 kts 120°
2026-05-05 16:35 55.30843 -108.17701 37305 ft 511 kts 120°
2026-05-05 16:35 55.26800 -108.07449 37299 ft 511 kts 121°
2026-05-05 16:36 55.22748 -107.97216 37303 ft 511 kts 121°
2026-05-05 16:36 55.18708 -107.87056 37290 ft 511 kts 121°
2026-05-05 16:37 55.14636 -107.76857 37294 ft 511 kts 121°
2026-05-05 16:37 55.10554 -107.66675 37285 ft 511 kts 121°
2026-05-05 16:38 55.06465 -107.56518 37282 ft 511 kts 121°
2026-05-05 16:38 55.02374 -107.46397 37201 ft 510 kts 121°
2026-05-05 16:39 54.98294 -107.36333 37269 ft 508 kts 121°
2026-05-05 16:39 54.94212 -107.26322 37267 ft 507 kts 121°
2026-05-05 16:40 54.90117 -107.16319 37266 ft 507 kts 121°
2026-05-05 16:40 54.86017 -107.06342 37256 ft 507 kts 121°
2026-05-05 16:41 54.81913 -106.96394 37254 ft 507 kts 121°
2026-05-05 16:41 54.77805 -106.86475 37251 ft 506 kts 122°
2026-05-05 16:42 54.73692 -106.76583 37244 ft 506 kts 122°
2026-05-05 16:42 54.69569 -106.66707 37244 ft 506 kts 122°
2026-05-05 16:43 54.65445 -106.56867 37240 ft 506 kts 122°
2026-05-05 16:43 54.61313 -106.47047 37234 ft 505 kts 122°
2026-05-05 16:44 54.57170 -106.37241 37229 ft 505 kts 122°
2026-05-05 16:44 54.53026 -106.27470 37225 ft 505 kts 122°
2026-05-05 16:45 54.48902 -106.17785 37224 ft 505 kts 122°
2026-05-05 16:45 54.44746 -106.08063 37219 ft 504 kts 122°
2026-05-05 16:46 54.40585 -105.98365 37221 ft 504 kts 123°
2026-05-05 16:46 54.36416 -105.88688 37214 ft 504 kts 123°
2026-05-05 16:47 54.32241 -105.79034 37198 ft 504 kts 123°
2026-05-05 16:47 54.28058 -105.69400 37199 ft 504 kts 123°
2026-05-05 16:48 54.23872 -105.59796 37215 ft 503 kts 123°
2026-05-05 16:48 54.19682 -105.50218 37197 ft 503 kts 123°
2026-05-05 16:49 54.15488 -105.40669 37199 ft 503 kts 123°
2026-05-05 16:49 54.11285 -105.31136 37195 ft 503 kts 123°
2026-05-05 16:50 54.07075 -105.21623 37186 ft 503 kts 123°
2026-05-05 16:50 54.02858 -105.12131 37180 ft 502 kts 123°
2026-05-05 16:51 53.98640 -105.02674 37175 ft 502 kts 124°
2026-05-05 16:51 53.94410 -104.93223 37170 ft 502 kts 124°
2026-05-05 16:52 53.90179 -104.83808 37165 ft 502 kts 124°
2026-05-05 16:52 53.85943 -104.74414 37161 ft 501 kts 124°
2026-05-05 16:53 53.81701 -104.65044 37154 ft 501 kts 124°
2026-05-05 16:53 53.77449 -104.55687 37155 ft 501 kts 124°
2026-05-05 16:54 53.73196 -104.46363 37151 ft 501 kts 124°
2026-05-05 16:54 53.68960 -104.37110 37149 ft 501 kts 124°
2026-05-05 16:55 53.64689 -104.27815 37143 ft 501 kts 124°
2026-05-05 16:55 53.60414 -104.18547 37136 ft 501 kts 124°
2026-05-05 16:56 53.56135 -104.09303 37127 ft 501 kts 125°
2026-05-05 16:56 53.51838 -104.00054 37125 ft 501 kts 125°
2026-05-05 16:57 53.47537 -103.90831 37118 ft 501 kts 125°
2026-05-05 16:57 53.43228 -103.81626 37122 ft 501 kts 125°
2026-05-05 16:58 53.38918 -103.72451 37121 ft 502 kts 125°
2026-05-05 16:58 53.34591 -103.63275 37127 ft 501 kts 125°
2026-05-05 16:59 53.30260 -103.54123 37133 ft 502 kts 125°
2026-05-05 16:59 53.25923 -103.44991 37146 ft 501 kts 126°
2026-05-05 17:00 53.21585 -103.35891 37135 ft 501 kts 126°
2026-05-05 17:00 53.17260 -103.26852 37140 ft 501 kts 126°
2026-05-05 17:01 53.12903 -103.17776 37147 ft 501 kts 126°
2026-05-05 17:01 53.08539 -103.08720 37151 ft 502 kts 126°
2026-05-05 17:02 53.04166 -102.99677 37136 ft 502 kts 126°
2026-05-05 17:02 53.01973 -102.95152 37277 ft 506 kts 127°
2026-05-05 17:02 52.99741 -102.90553 37213 ft 515 kts 127°
2026-05-05 17:03 52.95197 -102.81222 37142 ft 522 kts 127°
2026-05-05 17:03 52.90635 -102.71899 37128 ft 519 kts 127°
2026-05-05 17:04 52.86092 -102.62647 37121 ft 517 kts 127°
2026-05-05 17:04 52.81558 -102.53444 37129 ft 514 kts 127°
2026-05-05 17:05 52.77035 -102.44293 37132 ft 513 kts 127°
2026-05-05 17:05 52.72514 -102.35180 37124 ft 513 kts 128°
2026-05-05 17:06 52.67982 -102.26080 37122 ft 514 kts 128°
2026-05-05 17:06 52.63432 -102.16974 37126 ft 515 kts 128°
2026-05-05 17:07 52.58870 -102.07879 37120 ft 516 kts 128°
2026-05-05 17:07 52.54312 -101.98823 37117 ft 518 kts 128°
2026-05-05 17:08 52.49706 -101.89706 37120 ft 519 kts 128°
2026-05-05 17:08 52.45085 -101.80593 37114 ft 520 kts 128°
2026-05-05 17:09 52.40451 -101.71487 37105 ft 520 kts 128°
2026-05-05 17:09 52.35821 -101.62421 37108 ft 519 kts 128°
2026-05-05 17:10 52.31187 -101.53381 37102 ft 518 kts 128°
2026-05-05 17:10 52.26554 -101.44373 37099 ft 517 kts 128°
2026-05-05 17:11 52.21928 -101.35412 37102 ft 516 kts 129°
2026-05-05 17:11 52.17308 -101.26493 37101 ft 515 kts 129°
2026-05-05 17:12 52.12682 -101.17596 37103 ft 514 kts 129°
2026-05-05 17:12 52.08056 -101.08729 37100 ft 514 kts 129°
2026-05-05 17:13 52.03423 -100.99880 37105 ft 514 kts 129°
2026-05-05 17:13 51.98781 -100.91043 37102 ft 515 kts 129°
2026-05-05 17:14 51.94150 -100.82259 37092 ft 516 kts 129°
2026-05-05 17:14 51.89481 -100.73434 37097 ft 516 kts 129°
2026-05-05 17:15 51.84800 -100.64617 37095 ft 516 kts 129°
2026-05-05 17:15 51.80116 -100.55823 37090 ft 516 kts 130°
2026-05-05 17:16 51.75421 -100.47042 37093 ft 516 kts 130°
2026-05-05 17:16 51.70725 -100.38287 37093 ft 516 kts 130°
2026-05-05 17:17 51.66027 -100.29559 37088 ft 515 kts 130°
2026-05-05 17:17 51.61324 -100.20852 37090 ft 515 kts 130°
2026-05-05 17:18 51.56620 -100.12171 37085 ft 514 kts 130°
2026-05-05 17:18 51.51917 -100.03519 37090 ft 514 kts 130°
2026-05-05 17:19 51.47208 -99.94891 37080 ft 514 kts 130°
2026-05-05 17:19 51.42496 -99.86290 37092 ft 514 kts 130°
2026-05-05 17:20 51.37776 -99.77699 37086 ft 514 kts 130°
2026-05-05 17:20 51.33849 -99.70571 37081 ft 514 kts 131°
2026-05-05 17:21 51.29114 -99.62002 37081 ft 514 kts 131°
2026-05-05 17:22 51.21999 -99.49180 37082 ft 515 kts 131°
2026-05-05 17:22 51.17234 -99.40629 37071 ft 515 kts 131°
2026-05-05 17:23 51.12465 -99.32102 37080 ft 515 kts 131°
2026-05-05 17:23 51.07693 -99.23596 37075 ft 515 kts 131°
2026-05-05 17:24 51.02944 -99.15160 37061 ft 515 kts 131°
2026-05-05 17:24 50.98154 -99.06678 36994 ft 515 kts 131°
2026-05-05 17:25 50.93440 -98.98355 37058 ft 501 kts 130°
2026-05-05 17:25 50.88785 -98.90161 37068 ft 500 kts 131°
2026-05-05 17:26 50.84117 -98.81985 37071 ft 501 kts 131°
2026-05-05 17:26 50.79426 -98.73791 37056 ft 502 kts 131°
2026-05-05 17:27 50.74731 -98.65612 37054 ft 503 kts 131°
2026-05-05 17:27 50.70021 -98.57432 37057 ft 504 kts 131°
2026-05-05 17:28 50.65295 -98.49254 37051 ft 504 kts 131°
2026-05-05 17:28 50.60564 -98.41092 37049 ft 505 kts 131°
2026-05-05 17:29 50.55827 -98.32944 37045 ft 505 kts 131°
2026-05-05 17:29 50.51079 -98.24806 37042 ft 505 kts 131°
2026-05-05 17:30 50.46330 -98.16692 37044 ft 505 kts 131°
2026-05-05 17:30 50.41576 -98.08594 37041 ft 505 kts 132°
2026-05-05 17:31 50.36814 -98.00510 37034 ft 504 kts 132°
2026-05-05 17:31 50.32049 -97.92445 37034 ft 505 kts 132°
2026-05-05 17:32 50.27277 -97.84394 37027 ft 505 kts 132°
2026-05-05 17:32 50.22529 -97.76408 37025 ft 505 kts 132°
2026-05-05 17:33 50.17737 -97.68374 37021 ft 505 kts 132°
2026-05-05 17:33 50.12940 -97.60357 37015 ft 506 kts 133°
2026-05-05 17:34 50.08133 -97.52349 37005 ft 506 kts 133°
2026-05-05 17:34 50.03317 -97.44350 37001 ft 507 kts 133°
2026-05-05 17:35 49.98493 -97.36360 36995 ft 507 kts 133°
2026-05-05 17:35 49.93662 -97.28385 36990 ft 507 kts 133°
2026-05-05 17:36 49.89204 -97.19942 36989 ft 506 kts 122°
2026-05-05 17:36 49.85437 -97.10730 36997 ft 506 kts 121°
2026-05-05 17:37 49.81693 -97.01511 36993 ft 506 kts 122°
2026-05-05 17:37 49.77909 -96.92312 36993 ft 506 kts 122°
2026-05-05 17:38 49.74103 -96.83159 36997 ft 506 kts 122°
2026-05-05 17:38 49.70278 -96.74006 36996 ft 506 kts 122°
2026-05-05 17:39 49.66451 -96.64877 36995 ft 507 kts 123°
2026-05-05 17:39 49.62614 -96.55751 36990 ft 507 kts 123°
2026-05-05 17:40 49.58770 -96.46638 36989 ft 507 kts 123°
2026-05-05 17:40 49.54915 -96.37531 36985 ft 507 kts 123°
2026-05-05 17:41 49.51054 -96.28440 36989 ft 507 kts 123°
2026-05-05 17:41 49.47186 -96.19364 36985 ft 508 kts 123°
2026-05-05 17:42 49.43329 -96.10347 36983 ft 508 kts 123°
2026-05-05 17:42 49.39440 -96.01284 36978 ft 508 kts 123°
2026-05-05 17:43 49.35547 -95.92242 36975 ft 508 kts 123°
2026-05-05 17:43 49.31643 -95.83206 36974 ft 508 kts 124°
2026-05-05 17:44 49.27732 -95.74184 36972 ft 508 kts 124°
2026-05-05 17:44 49.23813 -95.65176 36969 ft 508 kts 124°
2026-05-05 17:45 49.19892 -95.56190 36958 ft 508 kts 124°
2026-05-05 17:45 49.15962 -95.47217 36951 ft 508 kts 124°
2026-05-05 17:46 49.12022 -95.38250 36946 ft 508 kts 124°
2026-05-05 17:46 49.08078 -95.29302 36942 ft 508 kts 124°
2026-05-05 17:47 49.04126 -95.20367 36939 ft 508 kts 124°
2026-05-05 17:47 49.00193 -95.11507 36946 ft 508 kts 125°
2026-05-05 17:48 48.96202 -95.02542 36947 ft 508 kts 125°
2026-05-05 17:48 48.92227 -94.93646 36952 ft 508 kts 125°
2026-05-05 17:49 48.88242 -94.84756 36928 ft 509 kts 125°
2026-05-05 17:49 48.84276 -94.75938 36917 ft 509 kts 125°
2026-05-05 17:50 48.80275 -94.67069 36905 ft 509 kts 125°
2026-05-05 17:50 48.76266 -94.58213 36904 ft 510 kts 126°
2026-05-05 17:51 48.72242 -94.49354 36906 ft 510 kts 126°
2026-05-05 17:51 48.68213 -94.40513 36911 ft 511 kts 126°
2026-05-05 17:52 48.64163 -94.31654 36924 ft 511 kts 126°
2026-05-05 17:52 48.60118 -94.22835 36927 ft 511 kts 126°
2026-05-05 17:53 48.56059 -94.14015 36928 ft 512 kts 126°
2026-05-05 17:53 48.51984 -94.05187 36924 ft 512 kts 126°
2026-05-05 17:54 48.47906 -93.96384 36919 ft 512 kts 126°
2026-05-05 17:54 48.43822 -93.87594 36927 ft 512 kts 127°
2026-05-05 17:55 48.39755 -93.78870 36915 ft 513 kts 127°
2026-05-05 17:55 48.35649 -93.70092 36907 ft 513 kts 127°
2026-05-05 17:56 48.31535 -93.61324 36901 ft 513 kts 127°
2026-05-05 17:56 48.27414 -93.52572 36909 ft 513 kts 127°
2026-05-05 17:57 48.23283 -93.43825 36907 ft 514 kts 127°
2026-05-05 17:57 48.19138 -93.35075 36914 ft 514 kts 127°
2026-05-05 17:58 48.14991 -93.26350 36900 ft 514 kts 127°
2026-05-05 17:58 48.10834 -93.17633 36890 ft 515 kts 128°
2026-05-05 17:59 48.06690 -93.08970 36878 ft 515 kts 128°
2026-05-05 17:59 48.02486 -93.00210 36872 ft 515 kts 128°
2026-05-05 18:00 47.98325 -92.91568 36867 ft 516 kts 128°
2026-05-05 18:00 47.94130 -92.82882 36868 ft 516 kts 128°
2026-05-05 18:01 47.89926 -92.74205 36870 ft 517 kts 128°
2026-05-05 18:01 47.85703 -92.65516 36868 ft 517 kts 128°
2026-05-05 18:02 47.81476 -92.56848 36869 ft 517 kts 128°
2026-05-05 18:02 47.77244 -92.48195 36875 ft 518 kts 128°
2026-05-05 18:03 47.72999 -92.39544 36886 ft 518 kts 129°
2026-05-05 18:03 47.68748 -92.30909 36889 ft 518 kts 129°
2026-05-05 18:04 47.64493 -92.22292 36896 ft 518 kts 129°
2026-05-05 18:04 47.60222 -92.13669 36887 ft 518 kts 129°
2026-05-05 18:05 47.55949 -92.05070 36884 ft 519 kts 129°
2026-05-05 18:05 47.51667 -91.96480 36891 ft 519 kts 129°
2026-05-05 18:06 47.47377 -91.87900 36890 ft 519 kts 129°
2026-05-05 18:06 47.43078 -91.79329 36891 ft 519 kts 129°
2026-05-05 18:07 47.38777 -91.70782 36885 ft 519 kts 129°
2026-05-05 18:07 47.34470 -91.62250 36881 ft 519 kts 130°
2026-05-05 18:08 47.30884 -91.55164 36878 ft 519 kts 130°
2026-05-05 18:08 47.26556 -91.46639 36875 ft 519 kts 130°
2026-05-05 18:09 47.22225 -91.38133 36878 ft 520 kts 130°
2026-05-05 18:09 47.17880 -91.29626 36877 ft 521 kts 130°
2026-05-05 18:10 47.13524 -91.21123 36883 ft 521 kts 130°
2026-05-05 18:10 47.09155 -91.12621 36885 ft 522 kts 130°
2026-05-05 18:11 47.04773 -91.04121 36879 ft 522 kts 130°
2026-05-05 18:11 47.00390 -90.95644 36887 ft 522 kts 130°
2026-05-05 18:12 46.95988 -90.87157 36885 ft 523 kts 131°
2026-05-05 18:12 46.91587 -90.78698 36884 ft 523 kts 131°
2026-05-05 18:13 46.87171 -90.70236 36885 ft 523 kts 131°
2026-05-05 18:13 46.82748 -90.61785 36886 ft 523 kts 131°
2026-05-05 18:14 46.78318 -90.53349 36878 ft 524 kts 131°
2026-05-05 18:14 46.73884 -90.44928 36876 ft 524 kts 131°
2026-05-05 18:15 46.69467 -90.36566 36876 ft 524 kts 131°
2026-05-05 18:15 46.65019 -90.28170 36870 ft 524 kts 131°
2026-05-05 18:16 46.60564 -90.19785 36866 ft 524 kts 132°
2026-05-05 18:16 46.56101 -90.11410 36868 ft 524 kts 132°
2026-05-05 18:17 46.51627 -90.03036 36871 ft 524 kts 131°
2026-05-05 18:17 46.47633 -89.94146 36871 ft 529 kts 122°
2026-05-05 18:18 46.44103 -89.84748 36869 ft 530 kts 122°
2026-05-05 18:18 46.40582 -89.75357 36860 ft 530 kts 122°
2026-05-05 18:19 46.37016 -89.65996 36849 ft 530 kts 123°
2026-05-05 18:19 46.33426 -89.56668 36843 ft 531 kts 123°
2026-05-05 18:20 46.29820 -89.47344 36831 ft 531 kts 123°
2026-05-05 18:20 46.26210 -89.38036 36825 ft 531 kts 123°
2026-05-05 18:21 46.22592 -89.28728 36822 ft 531 kts 123°
2026-05-05 18:21 46.18961 -89.19422 36823 ft 532 kts 123°
2026-05-05 18:22 46.15322 -89.10126 36824 ft 532 kts 124°
2026-05-05 18:22 46.11677 -89.00846 36822 ft 533 kts 124°
2026-05-05 18:23 46.08014 -88.91552 36817 ft 533 kts 124°
2026-05-05 18:23 46.04342 -88.82264 36809 ft 534 kts 124°
2026-05-05 18:24 46.00665 -88.73000 36815 ft 534 kts 124°
2026-05-05 18:24 45.96966 -88.63707 36803 ft 535 kts 124°
2026-05-05 18:25 45.93287 -88.54498 36786 ft 535 kts 124°
2026-05-05 18:25 45.89573 -88.45232 36778 ft 535 kts 125°
2026-05-05 18:26 45.85850 -88.35973 36773 ft 536 kts 125°
2026-05-05 18:26 45.82090 -88.26654 36773 ft 536 kts 125°
2026-05-05 18:27 45.78349 -88.17415 36772 ft 536 kts 125°
2026-05-05 18:27 45.74622 -88.08238 36770 ft 536 kts 125°
2026-05-05 18:28 45.68979 -87.94404 36771 ft 537 kts 126°
2026-05-05 18:28 45.65202 -87.85181 36774 ft 537 kts 126°
2026-05-05 18:29 45.61420 -87.75980 36773 ft 537 kts 126°
2026-05-05 18:29 45.57627 -87.66780 36777 ft 538 kts 126°
2026-05-05 18:30 45.53825 -87.57587 36780 ft 538 kts 126°
2026-05-05 18:30 45.50014 -87.48405 36782 ft 538 kts 126°
2026-05-05 18:31 45.46189 -87.39220 36787 ft 539 kts 126°
2026-05-05 18:31 45.42360 -87.30052 36790 ft 539 kts 126°
2026-05-05 18:32 45.38519 -87.20887 36794 ft 539 kts 127°
2026-05-05 18:32 45.34695 -87.11793 36795 ft 539 kts 127°
2026-05-05 18:33 45.30835 -87.02642 36794 ft 540 kts 127°
2026-05-05 18:33 45.26964 -86.93497 36797 ft 540 kts 127°
2026-05-05 18:34 45.23083 -86.84357 36798 ft 540 kts 127°
2026-05-05 18:34 45.19196 -86.75231 36808 ft 541 kts 127°
2026-05-05 18:35 45.15296 -86.66107 36811 ft 541 kts 127°
2026-05-05 18:35 45.11387 -86.56989 36813 ft 542 kts 128°
2026-05-05 18:36 45.07467 -86.47874 36825 ft 543 kts 128°
2026-05-05 18:36 45.03529 -86.38749 36821 ft 544 kts 128°
2026-05-05 18:37 44.99576 -86.29618 36819 ft 544 kts 128°
2026-05-05 18:37 44.95617 -86.20500 36825 ft 545 kts 128°
2026-05-05 18:38 44.91685 -86.11476 36822 ft 546 kts 128°
2026-05-05 18:38 44.87688 -86.02331 36823 ft 546 kts 128°
2026-05-05 18:39 44.83665 -85.93156 36807 ft 547 kts 128°
2026-05-05 18:39 44.79685 -85.84106 36800 ft 547 kts 128°
2026-05-05 18:40 44.75671 -85.75007 36789 ft 547 kts 128°
2026-05-05 18:40 44.71652 -85.65926 36787 ft 547 kts 128°
2026-05-05 18:41 44.67620 -85.56861 36779 ft 545 kts 130°
2026-05-05 18:41 44.63094 -85.48453 36802 ft 536 kts 137°
2026-05-05 18:42 44.58296 -85.40465 36784 ft 535 kts 138°
2026-05-05 18:42 44.53491 -85.32475 36786 ft 536 kts 138°
2026-05-05 18:43 44.48709 -85.24461 36790 ft 536 kts 137°
2026-05-05 18:43 44.43936 -85.16438 36795 ft 537 kts 137°
2026-05-05 18:44 44.39152 -85.08416 36790 ft 537 kts 137°
2026-05-05 18:44 44.34355 -85.00403 36782 ft 537 kts 138°
2026-05-05 18:45 44.29555 -84.92413 36781 ft 537 kts 138°
2026-05-05 18:45 44.24748 -84.84433 36779 ft 537 kts 138°
2026-05-05 18:46 44.19937 -84.76467 36791 ft 537 kts 138°
2026-05-05 18:46 44.15148 -84.68559 36785 ft 538 kts 138°
2026-05-05 18:47 44.10288 -84.60556 36788 ft 537 kts 138°
2026-05-05 18:47 44.05575 -84.52817 36784 ft 537 kts 138°
2026-05-05 18:48 44.00743 -84.44905 36776 ft 536 kts 138°
2026-05-05 18:48 43.95951 -84.37077 36772 ft 535 kts 138°
2026-05-05 18:49 43.91092 -84.29163 36777 ft 534 kts 139°
2026-05-05 18:49 43.86308 -84.21394 36783 ft 533 kts 139°
2026-05-05 18:50 43.81494 -84.13596 36782 ft 531 kts 139°
2026-05-05 18:50 43.76684 -84.05827 36783 ft 530 kts 139°
2026-05-05 18:51 43.71885 -83.98097 36781 ft 530 kts 139°
2026-05-05 18:51 43.67083 -83.90382 36780 ft 529 kts 139°
2026-05-05 18:52 43.62265 -83.82663 36784 ft 530 kts 139°
2026-05-05 18:52 43.57454 -83.74977 36787 ft 530 kts 139°
2026-05-05 18:53 43.52624 -83.67279 36794 ft 531 kts 139°
2026-05-05 18:53 43.48601 -83.60882 36787 ft 532 kts 139°
2026-05-05 18:54 43.43753 -83.53192 36786 ft 532 kts 139°
2026-05-05 18:54 43.38897 -83.45510 36778 ft 532 kts 139°
2026-05-05 18:55 43.34039 -83.37844 36776 ft 531 kts 139°
2026-05-05 18:55 43.29190 -83.30214 36780 ft 530 kts 139°
2026-05-05 18:56 43.24345 -83.22609 36782 ft 528 kts 139°
2026-05-05 18:56 43.19506 -83.15036 36787 ft 527 kts 139°
2026-05-05 18:57 43.14685 -83.07509 36785 ft 526 kts 139°
2026-05-05 18:57 43.09848 -82.99978 36791 ft 525 kts 139°
2026-05-05 18:58 43.05024 -82.92485 36804 ft 524 kts 140°
2026-05-05 18:58 43.00206 -82.85023 36816 ft 524 kts 140°
2026-05-05 18:59 42.95365 -82.77543 36820 ft 524 kts 140°
2026-05-05 18:59 42.90533 -82.70094 36820 ft 524 kts 140°
2026-05-05 19:00 42.85721 -82.62694 36848 ft 524 kts 140°
2026-05-05 19:00 42.81494 -82.54357 36842 ft 543 kts 122°
2026-05-05 19:01 42.78961 -82.44670 36836 ft 554 kts 106°
2026-05-05 19:01 42.77343 -82.34392 36830 ft 555 kts 105°
2026-05-05 19:02 42.75715 -82.24128 36821 ft 555 kts 106°
2026-05-05 19:02 42.74025 -82.13898 36817 ft 553 kts 107°
2026-05-05 19:03 42.72302 -82.03702 36814 ft 552 kts 107°
2026-05-05 19:03 42.70574 -81.93543 36817 ft 551 kts 107°
2026-05-05 19:04 42.68840 -81.83388 36816 ft 550 kts 107°
2026-05-05 19:04 42.67106 -81.73268 36821 ft 550 kts 107°
2026-05-05 19:05 42.65361 -81.63138 36824 ft 550 kts 107°
2026-05-05 19:05 42.63607 -81.53021 36814 ft 550 kts 107°
2026-05-05 19:06 42.61845 -81.42911 36812 ft 550 kts 107°
2026-05-05 19:06 42.60071 -81.32798 36817 ft 551 kts 107°
2026-05-05 19:07 42.58283 -81.22659 36800 ft 553 kts 107°
2026-05-05 19:07 42.56485 -81.12512 36787 ft 552 kts 107°
2026-05-05 19:08 42.54686 -81.02408 36790 ft 550 kts 108°
2026-05-05 19:08 42.52881 -80.92338 36791 ft 549 kts 108°
2026-05-05 19:09 42.51080 -80.82348 36800 ft 549 kts 108°
2026-05-05 19:09 42.49260 -80.72307 36786 ft 549 kts 108°
2026-05-05 19:10 42.47428 -80.62250 36795 ft 550 kts 108°
2026-05-05 19:10 42.45584 -80.52186 36792 ft 551 kts 108°
2026-05-05 19:11 42.43735 -80.42139 36798 ft 551 kts 108°
2026-05-05 19:11 42.41868 -80.32055 36797 ft 552 kts 108°
2026-05-05 19:12 42.39993 -80.21979 36810 ft 552 kts 108°
2026-05-05 19:12 42.38110 -80.11914 36811 ft 552 kts 107°
2026-05-05 19:13 42.36218 -80.01850 36806 ft 552 kts 107°
2026-05-05 19:13 42.34319 -79.91808 36808 ft 551 kts 107°
2026-05-05 19:14 42.32412 -79.81774 36806 ft 551 kts 107°
2026-05-05 19:14 42.30500 -79.71760 36806 ft 550 kts 107°
2026-05-05 19:15 42.28586 -79.61796 36824 ft 550 kts 107°
2026-05-05 19:15 42.26651 -79.51770 36825 ft 549 kts 107°
2026-05-05 19:16 42.24731 -79.41867 36837 ft 548 kts 107°
2026-05-05 19:16 42.22783 -79.31877 36845 ft 547 kts 107°
2026-05-05 19:17 42.20839 -79.21949 36852 ft 546 kts 107°
2026-05-05 19:17 42.18899 -79.12139 36841 ft 544 kts 108°
2026-05-05 19:18 42.16580 -79.02459 36838 ft 542 kts 111°
2026-05-05 19:18 42.14128 -78.92872 36818 ft 541 kts 111°
2026-05-05 19:19 42.11686 -78.83298 36800 ft 540 kts 111°
2026-05-05 19:19 42.09264 -78.73720 36799 ft 540 kts 111°
2026-05-05 19:20 42.06843 -78.64148 36811 ft 540 kts 111°
2026-05-05 19:20 42.04440 -78.54692 36808 ft 539 kts 111°
2026-05-05 19:21 42.01983 -78.45069 36819 ft 539 kts 111°
2026-05-05 19:21 41.99539 -78.35536 36811 ft 539 kts 111°
2026-05-05 19:22 41.97090 -78.26021 36811 ft 538 kts 111°
2026-05-05 19:22 41.94640 -78.16542 36820 ft 537 kts 111°
2026-05-05 19:23 41.92177 -78.07050 36828 ft 537 kts 111°
2026-05-05 19:23 41.89732 -77.97659 36819 ft 537 kts 111°
2026-05-05 19:24 41.87257 -77.88189 36826 ft 536 kts 111°
2026-05-05 19:24 41.84785 -77.78753 36819 ft 536 kts 111°
2026-05-05 19:25 41.82317 -77.69328 36801 ft 535 kts 111°
2026-05-05 19:25 41.79849 -77.59933 36807 ft 534 kts 111°
2026-05-05 19:26 41.77368 -77.50556 36801 ft 533 kts 111°
2026-05-05 19:26 41.74867 -77.41205 36786 ft 533 kts 111°
2026-05-05 19:27 41.72367 -77.31891 36787 ft 531 kts 111°
2026-05-05 19:27 41.69871 -77.22608 36798 ft 530 kts 111°
2026-05-05 19:28 41.67368 -77.13332 36793 ft 530 kts 111°
2026-05-05 19:28 41.64859 -77.04070 36787 ft 529 kts 111°
2026-05-05 19:29 41.62367 -76.94899 36783 ft 528 kts 111°
2026-05-05 19:29 41.59839 -76.85617 36786 ft 528 kts 111°
2026-05-05 19:30 41.57340 -76.76483 36775 ft 527 kts 111°
2026-05-05 19:30 41.54821 -76.67304 36781 ft 526 kts 111°
2026-05-05 19:31 41.52298 -76.58142 36788 ft 525 kts 111°
2026-05-05 19:31 41.49779 -76.49021 36791 ft 524 kts 112°
2026-05-05 19:32 41.47254 -76.39897 36600 ft 526 kts 112°
2026-05-05 19:32 41.45974 -76.35285 35816 ft 533 kts 111°
2026-05-05 19:32 41.44685 -76.30648 35074 ft 533 kts 111°
2026-05-05 19:33 41.43393 -76.26010 34361 ft 533 kts 111°
2026-05-05 19:33 41.42110 -76.21406 33811 ft 528 kts 111°
2026-05-05 19:33 41.40834 -76.16839 33216 ft 525 kts 111°
2026-05-05 19:33 41.39564 -76.12299 32659 ft 520 kts 111°
2026-05-05 19:34 41.38311 -76.07829 32165 ft 515 kts 111°
2026-05-05 19:34 41.37070 -76.03414 31627 ft 511 kts 111°
2026-05-05 19:34 41.35815 -75.98957 31108 ft 506 kts 111°
2026-05-05 19:35 41.33359 -75.90252 30091 ft 498 kts 111°
2026-05-05 19:35 41.32147 -75.85965 29526 ft 494 kts 111°
2026-05-05 19:35 41.30941 -75.81710 28959 ft 489 kts 112°
2026-05-05 19:35 41.29747 -75.77502 28448 ft 484 kts 112°
2026-05-05 19:36 41.29324 -75.76011 28265 ft 482 kts 112°
2026-05-05 19:36 41.28128 -75.71808 27742 ft 478 kts 112°
2026-05-05 19:36 41.26963 -75.67757 27230 ft 473 kts 113°
2026-05-05 19:37 41.25688 -75.63754 26727 ft 468 kts 116°
2026-05-05 19:37 41.24354 -75.59826 26231 ft 464 kts 116°
2026-05-05 19:37 41.23012 -75.55943 25742 ft 460 kts 117°
2026-05-05 19:37 41.21691 -75.52098 25320 ft 456 kts 116°
2026-05-05 19:38 41.20388 -75.48265 24846 ft 453 kts 116°
2026-05-05 19:38 41.19106 -75.44464 24371 ft 450 kts 116°
2026-05-05 19:38 41.17836 -75.40687 23892 ft 447 kts 117°
2026-05-05 19:38 41.16570 -75.36925 23402 ft 444 kts 117°
2026-05-05 19:39 41.15312 -75.33199 22844 ft 441 kts 117°
2026-05-05 19:39 41.14076 -75.29535 22730 ft 428 kts 117°
2026-05-05 19:39 41.12862 -75.25939 22619 ft 428 kts 117°
2026-05-05 19:39 41.11640 -75.22329 22476 ft 427 kts 117°
2026-05-05 19:40 41.10432 -75.18759 22357 ft 425 kts 117°
2026-05-05 19:40 41.09628 -75.16386 22276 ft 423 kts 117°
2026-05-05 19:40 41.08424 -75.12833 22142 ft 422 kts 117°
2026-05-05 19:40 41.07222 -75.09295 22029 ft 420 kts 117°
2026-05-05 19:41 41.06021 -75.05765 21901 ft 419 kts 117°
2026-05-05 19:41 41.04823 -75.02249 21772 ft 419 kts 117°
2026-05-05 19:41 41.03627 -74.98743 21647 ft 418 kts 117°
2026-05-05 19:41 41.02428 -74.95229 21516 ft 418 kts 117°
2026-05-05 19:42 41.01232 -74.91725 21389 ft 418 kts 117°
2026-05-05 19:42 41.00035 -74.88225 21264 ft 417 kts 116°
2026-05-05 19:42 40.99116 -74.84580 21136 ft 420 kts 103°
2026-05-05 19:42 40.98639 -74.80769 21033 ft 420 kts 99°
2026-05-05 19:43 40.98252 -74.76937 20909 ft 420 kts 99°
2026-05-05 19:43 40.97875 -74.73105 20795 ft 420 kts 99°
2026-05-05 19:43 40.97481 -74.69281 20669 ft 420 kts 99°
2026-05-05 19:43 40.97064 -74.65452 20541 ft 420 kts 100°
2026-05-05 19:44 40.96630 -74.61633 20444 ft 420 kts 100°
2026-05-05 19:44 40.96184 -74.57814 20318 ft 419 kts 101°
2026-05-05 19:44 40.95733 -74.54011 20205 ft 418 kts 101°
2026-05-05 19:44 40.95279 -74.50209 20083 ft 418 kts 101°
2026-05-05 19:45 40.94825 -74.46418 19950 ft 417 kts 101°
2026-05-05 19:45 40.94373 -74.42644 19829 ft 416 kts 101°
2026-05-05 19:45 40.93921 -74.38875 19707 ft 415 kts 101°
2026-05-05 19:45 40.93469 -74.35110 19573 ft 413 kts 101°
2026-05-05 19:46 40.93018 -74.31366 19467 ft 412 kts 101°
2026-05-05 19:46 40.92566 -74.27629 19346 ft 410 kts 101°
2026-05-05 19:46 40.92115 -74.23910 19226 ft 409 kts 101°
2026-05-05 19:46 40.91665 -74.20208 19121 ft 403 kts 101°
2026-05-05 19:47 40.91227 -74.16603 18987 ft 392 kts 101°
2026-05-05 19:47 40.90779 -74.13152 18889 ft 377 kts 105°
2026-05-05 19:47 40.89822 -74.10039 18838 ft 356 kts 126°
2026-05-05 19:47 40.88394 -74.07372 18681 ft 360 kts 136°
2026-05-05 19:48 40.86474 -74.05286 18271 ft 355 kts 152°
2026-05-05 19:48 40.84366 -74.03650 18036 ft 346 kts 156°
2026-05-05 19:48 40.82264 -74.02145 17726 ft 341 kts 157°
2026-05-05 19:48 40.80182 -74.00672 17380 ft 338 kts 157°
2026-05-05 19:49 40.78124 -73.99217 17027 ft 335 kts 157°
2026-05-05 19:49 40.76077 -73.97768 16733 ft 332 kts 157°
2026-05-05 19:49 40.74052 -73.96329 16390 ft 329 kts 158°
2026-05-05 19:49 40.72048 -73.94898 16063 ft 327 kts 158°
2026-05-05 19:50 40.70048 -73.93462 15727 ft 325 kts 158°
2026-05-05 19:50 40.68068 -73.92032 15402 ft 323 kts 158°
2026-05-05 19:50 40.66099 -73.90600 15091 ft 322 kts 158°
2026-05-05 19:50 40.64144 -73.89169 14784 ft 321 kts 158°
2026-05-05 19:51 40.62195 -73.87734 14471 ft 321 kts 158°
2026-05-05 19:51 40.60242 -73.86289 14092 ft 323 kts 158°
2026-05-05 19:51 40.58273 -73.84827 13709 ft 325 kts 158°
2026-05-05 19:51 40.56306 -73.83360 13311 ft 326 kts 158°
2026-05-05 19:52 40.54333 -73.81882 12887 ft 327 kts 158°
2026-05-05 19:52 40.52357 -73.80399 12438 ft 328 kts 158°
2026-05-05 19:52 40.50403 -73.78926 11989 ft 328 kts 157°
2026-05-05 19:52 40.48587 -73.77091 11513 ft 338 kts 137°
2026-05-05 19:53 40.47371 -73.74401 11066 ft 351 kts 113°
2026-05-05 19:53 40.46976 -73.71213 10641 ft 359 kts 90°
2026-05-05 19:53 40.47479 -73.68005 10190 ft 361 kts 67°
2026-05-05 19:53 40.48577 -73.65052 9797 ft 359 kts 59°
2026-05-05 19:54 40.49821 -73.62216 9361 ft 354 kts 54°
2026-05-05 19:54 40.51495 -73.59969 9071 ft 340 kts 27°
2026-05-05 19:54 40.53522 -73.58430 9050 ft 342 kts 25°
2026-05-05 19:54 40.55655 -73.56760 9073 ft 362 kts 26°
2026-05-05 19:55 40.57714 -73.55079 8867 ft 336 kts 27°
2026-05-05 19:55 40.59646 -73.53480 8484 ft 320 kts 27°
2026-05-05 19:55 40.61498 -73.51952 8134 ft 312 kts 27°
2026-05-05 19:55 40.63332 -73.50448 7842 ft 310 kts 27°
2026-05-05 19:56 40.65150 -73.48952 7566 ft 307 kts 27°
2026-05-05 19:56 40.66953 -73.47466 7316 ft 305 kts 28°
2026-05-05 19:56 40.68762 -73.46001 7063 ft 302 kts 24°
2026-05-05 19:56 40.70622 -73.44766 6913 ft 300 kts 20°
2026-05-05 19:57 40.72522 -73.43597 6593 ft 301 kts 20°
2026-05-05 19:57 40.74470 -73.42811 6253 ft 286 kts 357°
2026-05-05 19:57 40.76341 -73.43175 6013 ft 264 kts 331°
2026-05-05 19:57 40.77894 -73.44333 5726 ft 250 kts 315°
2026-05-05 19:58 40.79083 -73.45922 5451 ft 238 kts 298°
2026-05-05 19:58 40.79957 -73.47743 5204 ft 235 kts 294°
2026-05-05 19:58 40.80794 -73.49602 4888 ft 235 kts 293°
2026-05-05 19:58 40.81624 -73.51445 4636 ft 231 kts 292°
2026-05-05 19:59 40.82090 -73.53354 4320 ft 213 kts 267°
2026-05-05 19:59 40.81928 -73.55227 4108 ft 200 kts 250°
2026-05-05 19:59 40.81501 -73.56944 3870 ft 194 kts 247°
2026-05-05 19:59 40.81058 -73.58605 3653 ft 189 kts 246°
2026-05-05 20:00 40.80632 -73.60199 3417 ft 185 kts 246°
2026-05-05 20:00 40.80214 -73.61769 3177 ft 179 kts 245°
2026-05-05 20:00 40.79564 -73.63089 2977 ft 171 kts 218°
2026-05-05 20:00 40.78604 -73.64033 2871 ft 175 kts 216°
2026-05-05 20:01 40.77648 -73.65007 2830 ft 172 kts 217°
2026-05-05 20:01 40.76672 -73.65907 2704 ft 170 kts 213°
2026-05-05 20:01 40.75671 -73.66728 2502 ft 171 kts 211°
2026-05-05 20:01 40.74659 -73.67526 2304 ft 168 kts 210°
2026-05-05 20:02 40.73670 -73.68310 2074 ft 164 kts 210°
2026-05-05 20:02 40.72699 -73.69072 1854 ft 161 kts 210°
2026-05-05 20:02 40.71752 -73.69814 1630 ft 154 kts 211°
2026-05-05 20:02 40.70817 -73.70552 1441 ft 161 kts 209°
2026-05-05 20:03 40.69850 -73.71310 1228 ft 161 kts 208°
2026-05-05 20:03 40.68891 -73.72060 1003 ft 159 kts 208°
2026-05-05 20:03 40.67973 -73.72786 815 ft 150 kts 209°
2026-05-05 20:03 40.67119 -73.73456 634 ft 134 kts 208°
2026-05-05 20:04 40.66322 -73.74083 458 ft 134 kts 204°
2026-05-05 20:04 40.65518 -73.74683 313 ft 132 kts 206°
2026-05-05 20:04 40.64754 -73.75299 110 ft 125 kts 203°
2026-05-05 20:04 40.64039 -73.75869 27 ft 111 kts 210°
2026-05-05 20:05 40.63503 -73.76284 29 ft 63 kts 210°
2026-05-05 20:05 40.63313 -73.76476 30 ft 27 kts 230°
2026-05-05 20:05 40.63237 -73.76674 29 ft 17 kts 270°
2026-05-05 20:05 40.63283 -73.76819 29 ft 17 kts 300°
2026-05-05 20:06 40.63344 -73.76955 30 ft 17 kts 302°
2026-05-05 20:06 40.63408 -73.77091 28 ft 17 kts 301°
2026-05-05 20:06 40.63470 -73.77227 29 ft 18 kts 301°
2026-05-05 20:06 40.63534 -73.77369 30 ft 18 kts 301°
2026-05-05 20:07 40.63599 -73.77513 32 ft 19 kts 301°
2026-05-05 20:07 40.63668 -73.77647 30 ft 13 kts 305°
2026-05-05 20:07 40.63668 -73.77690 31 ft 4 kts 234°
2026-05-05 20:07 40.63634 -73.77727 26 ft 10 kts 210°
2026-05-05 20:08 40.63550 -73.77792 29 ft 18 kts 210°
2026-05-05 20:08 40.63426 -73.77906 29 ft 25 kts 227°
2026-05-05 20:08 40.63445 -73.78118 30 ft 25 kts 300°
2026-05-05 20:08 40.63535 -73.78318 30 ft 25 kts 301°
2026-05-05 20:09 40.63626 -73.78518 32 ft 25 kts 301°
2026-05-05 20:09 40.63717 -73.78718 28 ft 25 kts 301°
2026-05-05 20:09 40.63807 -73.78917 28 ft 25 kts 301°
2026-05-05 20:09 40.63898 -73.79117 31 ft 25 kts 301°
2026-05-05 20:10 40.63990 -73.79319 31 ft 26 kts 300°
2026-05-05 20:10 40.64096 -73.79496 27 ft 24 kts 337°
2026-05-05 20:10 40.64266 -73.79499 28 ft 25 kts
2026-05-05 20:10 40.64431 -73.79489 27 ft 25 kts 355°
2026-05-05 20:11 40.64605 -73.79533 27 ft 26 kts 334°
2026-05-05 20:11 40.64753 -73.79665 26 ft 18 kts 325°
2026-05-05 20:11 40.64873 -73.79703 26 ft 18 kts 360°
2026-05-05 20:11 40.64995 -73.79698 27 ft 18 kts
2026-05-05 20:12 40.65083 -73.79596 27 ft 18 kts 58°
2026-05-05 20:12 40.65148 -73.79447 27 ft 20 kts 61°
2026-05-05 20:12 40.65206 -73.79284 23 ft 20 kts 78°
2026-05-05 20:12 40.65183 -73.79116 28 ft 18 kts 107°
2026-05-05 20:13 40.65148 -73.78962 28 ft 12 kts 104°
2026-05-05 20:13 40.65131 -73.78923 30 ft 3 kts 142°
2026-05-05 20:13 40.65110 -73.78915 27 ft 4 kts 174°
2026-05-05 20:13 40.65067 -73.78918 25 ft 10 kts 191°
2026-05-05 20:14 40.65009 -73.78996 26 ft 13 kts 245°
2026-05-05 20:14 40.64981 -73.79056 24 ft 5 kts 222°
2026-05-05 20:14 40.64955 -73.79061 23 ft 4 kts 183°
2026-05-05 20:14 40.64932 -73.79059 24 ft 3 kts 173°
2026-05-05 20:15 40.64912 -73.79055 24 ft 2 kts 172°
2026-05-05 20:15 40.64909 -73.79055 24 ft 0 kts 172°